Darstellungsparameter: Aktuell verwendete Einstellungen:
Skalierung der Graphiken ... ?
xyx+y,   Skalierungsfaktor:      Skalierung: Modus: x, Faktor: 1
Darstellungszeitraum ... ?
Vom - - bis: - -   Zeitraum: 25.12.2019 - 31.12.2019
Min/Max/Avg-Anzeige ... ?
Zeige MMA aktuell
Zeige MMA Monat
Zeige MMA alles
Zeige --A aktuell
Zeige --A Monat
Zeige --A alles
Keine MMA-Anzeige
MMA:
Average (ber die Originaldaten)
MMA-Basis: 25.12.2019 - 31.12.2019
Quicknavigation für Darstellung... ?
Tage:      1T, 2T, 3T, 5T -1T -2T -3T -5T +1T +2T +3T +5T
Wochen: 1W, 2W, 3W -1W -2W -3W +1W +2W +3W
Monate: 1M, 3M, 6M -1M -3M -6M +1M +3M +6M
Jahre:    1J, 3J, 5J, 10J -1J -3J -5J -10J +1J +3J +5J +10J
Nutze für die Darstellung ... ?
Originaldaten oder Mittelwerte auf ...
Stundenbasis Tagesbasis Wochenbasis
Monatsbasis Jahresbasis      Datenbasis: Original-Daten
Darstellen als:
Statistik (Auto) Statistik J:M      Darstellung:
Zur Graphik,    zurück zur Übersicht aller Sensoren.
 
Tabellarische Datenbersicht: ?
 
Sensor: Nr:Datum:Temp:Feuchte:
Aussen-T/F 1 25-12-2019 00:02:17 8.4 C 27 %
2 25-12-2019 00:12:17 8.4 C 27 %
3 25-12-2019 00:22:17 8.4 C 28 %
4 25-12-2019 00:32:17 8.3 C 28 %
5 25-12-2019 00:42:18 8.2 C 29 %
6 25-12-2019 00:52:17 8.2 C 29 %
7 25-12-2019 01:02:17 7.8 C 32 %
8 25-12-2019 01:12:17 7.7 C 33 %
9 25-12-2019 01:22:17 7.5 C 35 %
10 25-12-2019 01:32:18 7.3 C 35 %
11 25-12-2019 01:42:18 7.5 C 35 %
12 25-12-2019 01:52:17 7.6 C 33 %
13 25-12-2019 02:02:17 7.7 C 32 %
14 25-12-2019 02:12:17 8 C 31 %
15 25-12-2019 02:22:17 7.9 C 31 %
16 25-12-2019 02:32:18 7.9 C 31 %
17 25-12-2019 02:42:18 7.9 C 31 %
18 25-12-2019 02:52:17 7.9 C 31 %
19 25-12-2019 03:02:17 7.8 C 31 %
20 25-12-2019 03:12:17 7.9 C 32 %
21 25-12-2019 03:22:17 8.1 C 31 %
22 25-12-2019 03:32:17 8.3 C 30 %
23 25-12-2019 03:42:17 8.2 C 30 %
24 25-12-2019 03:52:18 8.2 C 30 %
25 25-12-2019 04:02:17 7.9 C 34 %
Sensor: Nr:Datum:Temp:Feuchte:
Aussen-T/F 26 25-12-2019 04:12:17 8 C 34 %
27 25-12-2019 04:22:18 7.9 C 35 %
28 25-12-2019 04:32:17 7.9 C 36 %
29 25-12-2019 04:42:17 7.9 C 38 %
30 25-12-2019 04:52:17 7.9 C 36 %
31 25-12-2019 05:02:17 7.9 C 37 %
32 25-12-2019 05:12:17 7.8 C 37 %
33 25-12-2019 05:22:18 7.6 C 38 %
34 25-12-2019 05:32:17 8 C 36 %
35 25-12-2019 05:42:17 7.9 C 35 %
36 25-12-2019 05:52:17 7.5 C 35 %
37 25-12-2019 06:02:18 7.5 C 35 %
38 25-12-2019 06:12:18 7.2 C 36 %
39 25-12-2019 06:22:17 7.2 C 37 %
40 25-12-2019 06:32:18 7.3 C 37 %
41 25-12-2019 06:42:18 7.3 C 36 %
42 25-12-2019 06:52:17 7.1 C 39 %
43 25-12-2019 07:02:18 7.3 C 33 %
44 25-12-2019 07:12:18 7.1 C 32 %
45 25-12-2019 07:22:17 6.9 C 35 %
46 25-12-2019 07:32:18 6.8 C 38 %
47 25-12-2019 07:42:18 6.9 C 38 %
48 25-12-2019 07:52:17 7 C 35 %
49 25-12-2019 08:02:18 6.8 C 32 %
50 25-12-2019 08:12:18 6.4 C 32 %
Sensor: Nr:Datum:Temp:Feuchte:
Aussen-T/F 51 25-12-2019 08:22:17 6.2 C 33 %
52 25-12-2019 08:32:17 6.2 C 32 %
53 25-12-2019 08:42:17 6.5 C 32 %
54 25-12-2019 08:52:17 6.7 C 31 %
55 25-12-2019 09:02:17 6.9 C 30 %
56 25-12-2019 09:12:17 6.9 C 30 %
57 25-12-2019 09:22:18 6.8 C 30 %
58 25-12-2019 09:32:17 7.3 C 28 %
59 25-12-2019 09:42:17 7.3 C 27 %
60 25-12-2019 09:52:17 7.3 C 27 %
61 25-12-2019 10:02:17 7.1 C 29 %
62 25-12-2019 10:12:17 7.3 C 27 %
63 25-12-2019 10:22:18 7.6 C 26 %
64 25-12-2019 10:32:17 7.7 C 26 %
65 25-12-2019 10:42:17 7.8 C 25 %
66 25-12-2019 10:52:17 7.5 C 26 %
67 25-12-2019 11:02:17 7.5 C 26 %
68 25-12-2019 11:12:17 7.5 C 26 %
69 25-12-2019 11:22:17 7.7 C 26 %
70 25-12-2019 11:32:17 7.4 C 26 %
71 25-12-2019 11:42:17 7.4 C 27 %
72 25-12-2019 11:52:18 7.1 C 28 %
73 25-12-2019 12:02:17 7.1 C 29 %
74 25-12-2019 12:12:17 7.6 C 27 %
75 25-12-2019 12:22:17 7.6 C 27 %
Sensor: Nr:Datum:Temp:Feuchte:
Aussen-T/F 76 25-12-2019 12:32:17 7.7 C 27 %
77 25-12-2019 12:42:17 7.8 C 27 %
78 25-12-2019 12:52:18 7.6 C 27 %
79 25-12-2019 13:02:17 7.1 C 29 %
80 25-12-2019 13:12:17 7 C 31 %
81 25-12-2019 13:22:18 6.9 C 31 %
82 25-12-2019 13:32:17 7.1 C 30 %
83 25-12-2019 13:42:17 7 C 30 %
84 25-12-2019 13:52:17 6.9 C 30 %
85 25-12-2019 14:02:17 7.1 C 30 %
86 25-12-2019 14:12:17 7.4 C 29 %
87 25-12-2019 14:22:18 7.6 C 28 %
88 25-12-2019 14:32:17 7.7 C 29 %
89 25-12-2019 14:42:17 7.6 C 29 %
90 25-12-2019 14:52:17 7.1 C 31 %
91 25-12-2019 15:02:17 7.1 C 32 %
92 25-12-2019 15:12:17 7.1 C 30 %
93 25-12-2019 15:22:18 7.1 C 31 %
94 25-12-2019 15:32:17 7.4 C 30 %
95 25-12-2019 15:42:17 7.3 C 31 %
96 25-12-2019 15:52:17 7.2 C 30 %
97 25-12-2019 16:02:17 7.2 C 30 %
98 25-12-2019 16:12:17 6.9 C 31 %
99 25-12-2019 16:22:17 6.8 C 32 %
100 25-12-2019 16:32:17 6.7 C 35 %
Sensor: Nr:Datum:Temp:Feuchte:
Aussen-T/F 101 25-12-2019 16:42:17 6.9 C 32 %
102 25-12-2019 16:52:17 6.9 C 31 %
103 25-12-2019 17:02:17 6.8 C 30 %
104 25-12-2019 17:12:17 6.7 C 30 %
105 25-12-2019 17:22:18 6.6 C 31 %
106 25-12-2019 17:32:17 6.2 C 31 %
107 25-12-2019 17:42:17 5.7 C 35 %
108 25-12-2019 17:52:18 5.9 C 35 %
109 25-12-2019 18:02:17 6 C 33 %
110 25-12-2019 18:12:17 6.1 C 32 %
111 25-12-2019 18:22:17 6.2 C 33 %
112 25-12-2019 18:32:17 6.2 C 33 %
113 25-12-2019 18:42:17 6.2 C 32 %
114 25-12-2019 18:52:17 6.2 C 32 %
115 25-12-2019 19:02:17 6 C 33 %
116 25-12-2019 19:12:17 5.9 C 33 %
117 25-12-2019 19:22:17 6.1 C 32 %
118 25-12-2019 19:32:18 6.1 C 32 %
119 25-12-2019 19:42:18 6 C 33 %
120 25-12-2019 19:52:17 5.9 C 33 %
121 25-12-2019 20:02:17 5.8 C 35 %
122 25-12-2019 20:12:17 5.9 C 35 %
123 25-12-2019 20:22:18 5.9 C 34 %
124 25-12-2019 20:32:17 5.8 C 34 %
125 25-12-2019 20:42:17 5.6 C 37 %
Sensor: Nr:Datum:Temp:Feuchte:
Aussen-T/F 126 25-12-2019 20:52:17 5.5 C 38 %
127 25-12-2019 21:02:18 5.5 C 38 %
128 25-12-2019 21:12:18 5.4 C 40 %
129 25-12-2019 21:22:17 5.3 C 41 %
130 25-12-2019 21:32:17 5.3 C 43 %
131 25-12-2019 21:42:17 5.3 C 42 %
132 25-12-2019 21:52:17 5.2 C 42 %
133 25-12-2019 22:02:18 5.2 C 42 %
134 25-12-2019 22:12:18 5.1 C 43 %
135 25-12-2019 22:22:17 5.2 C 42 %
136 25-12-2019 22:32:18 5.1 C 41 %
137 25-12-2019 22:42:18 5.1 C 42 %
138 25-12-2019 22:52:17 5.2 C 42 %
139 25-12-2019 23:02:18 5.2 C 42 %
140 25-12-2019 23:12:18 5.2 C 42 %
141 25-12-2019 23:22:17 5.2 C 42 %
142 25-12-2019 23:32:17 5.1 C 42 %
143 25-12-2019 23:42:17 4.7 C 42 %
144 25-12-2019 23:52:17 4.5 C 42 %
145 26-12-2019 00:02:17 4.6 C 43 %
146 26-12-2019 00:12:18 4 C 42 %
147 26-12-2019 00:22:17 3.6 C 42 %
148 26-12-2019 00:32:18 3.9 C 44 %
149 26-12-2019 00:42:18 3.9 C 44 %
150 26-12-2019 00:52:17 4.1 C 43 %
Sensor: Nr:Datum:Temp:Feuchte:
Aussen-T/F 151 26-12-2019 01:02:18 4.4 C 43 %
152 26-12-2019 01:12:18 4.3 C 43 %
153 26-12-2019 01:22:17 4.3 C 43 %
154 26-12-2019 01:32:17 4.4 C 43 %
155 26-12-2019 01:42:17 4.4 C 43 %
156 26-12-2019 01:52:17 4.3 C 42 %
157 26-12-2019 02:02:18 4.3 C 42 %
158 26-12-2019 02:12:18 4.4 C 42 %
159 26-12-2019 02:22:17 4.2 C 42 %
160 26-12-2019 02:32:17 4 C 42 %
161 26-12-2019 02:42:17 4 C 42 %
162 26-12-2019 02:52:17 4.2 C 42 %
163 26-12-2019 03:02:18 4.2 C 42 %
164 26-12-2019 03:12:18 4.1 C 42 %
165 26-12-2019 03:22:17 4.1 C 42 %
166 26-12-2019 03:32:17 4.1 C 42 %
167 26-12-2019 03:42:17 4.1 C 42 %
168 26-12-2019 03:52:17 3.9 C 43 %
169 26-12-2019 04:02:17 3.6 C 42 %
170 26-12-2019 04:12:17 3.6 C 42 %
171 26-12-2019 04:22:18 3.4 C 42 %
172 26-12-2019 04:32:17 3 C 42 %
173 26-12-2019 04:42:17 3.1 C 42 %
174 26-12-2019 04:52:17 3.1 C 43 %
175 26-12-2019 05:02:17 3.3 C 43 %
Sensor: Nr:Datum:Temp:Feuchte:
Aussen-T/F 176 26-12-2019 05:12:17 3.5 C 43 %
177 26-12-2019 05:22:17 3.4 C 43 %
178 26-12-2019 05:32:18 3.5 C 43 %
179 26-12-2019 05:42:18 3.4 C 43 %
180 26-12-2019 05:52:17 3.5 C 43 %
181 26-12-2019 06:02:17 3.6 C 43 %
182 26-12-2019 06:12:18 3.6 C 43 %
183 26-12-2019 06:22:17 3.5 C 43 %
184 26-12-2019 06:32:18 3.6 C 43 %
185 26-12-2019 06:42:18 3.5 C 43 %
186 26-12-2019 06:52:17 3.5 C 43 %
187 26-12-2019 07:02:18 3.5 C 43 %
188 26-12-2019 07:12:18 3.5 C 43 %
189 26-12-2019 07:22:17 3.4 C 43 %
190 26-12-2019 07:32:17 3.4 C 43 %
191 26-12-2019 07:42:17 3.4 C 43 %
192 26-12-2019 07:52:17 3.4 C 43 %
193 26-12-2019 08:02:18 3.4 C 43 %
194 26-12-2019 08:12:18 3.4 C 43 %
195 26-12-2019 08:22:17 3.5 C 43 %
196 26-12-2019 08:32:17 3.4 C 43 %
197 26-12-2019 08:42:17 3.4 C 43 %
198 26-12-2019 08:52:17 3.5 C 43 %
199 26-12-2019 09:02:17 3.5 C 43 %
200 26-12-2019 09:12:17 3.5 C 43 %
Sensor: Nr:Datum:Temp:Feuchte:
Aussen-T/F 201 26-12-2019 09:22:17 3.4 C 42 %
202 26-12-2019 09:32:17 3.5 C 43 %
203 26-12-2019 09:42:17 3.6 C 42 %
204 26-12-2019 09:52:18 3.6 C 42 %
205 26-12-2019 10:02:17 3.6 C 42 %
206 26-12-2019 10:12:17 3.6 C 42 %
207 26-12-2019 10:22:18 3.8 C 42 %
208 26-12-2019 10:32:17 4 C 41 %
209 26-12-2019 10:42:17 4.3 C 41 %
210 26-12-2019 10:52:18 4.5 C 41 %
211 26-12-2019 11:02:17 4.7 C 41 %
212 26-12-2019 11:12:17 4.8 C 41 %
213 26-12-2019 11:22:17 5 C 40 %
214 26-12-2019 11:32:17 5.4 C 40 %
215 26-12-2019 11:42:17 5.5 C 39 %
216 26-12-2019 11:52:17 5.6 C 37 %
217 26-12-2019 12:02:17 5.7 C 36 %
218 26-12-2019 12:12:17 5.7 C 36 %
219 26-12-2019 12:22:17 5.7 C 35 %
220 26-12-2019 12:32:18 5.9 C 35 %
221 26-12-2019 12:42:18 6 C 35 %
222 26-12-2019 12:52:17 6 C 36 %
223 26-12-2019 13:02:18 5.9 C 36 %
224 26-12-2019 13:12:18 5.9 C 37 %
225 26-12-2019 13:22:17 5.8 C 36 %
Sensor: Nr:Datum:Temp:Feuchte:
Aussen-T/F 226 26-12-2019 13:32:18 5.8 C 36 %
227 26-12-2019 13:42:18 5.7 C 36 %
228 26-12-2019 13:52:17 5.7 C 36 %
229 26-12-2019 14:02:18 5.7 C 36 %
230 26-12-2019 14:12:18 5.8 C 35 %
231 26-12-2019 14:22:17 6 C 35 %
232 26-12-2019 14:32:17 6 C 35 %
233 26-12-2019 14:42:17 5.7 C 35 %
234 26-12-2019 14:52:17 5.6 C 36 %
235 26-12-2019 15:02:17 5.5 C 36 %
236 26-12-2019 15:12:17 5.4 C 36 %
237 26-12-2019 15:22:17 5.1 C 38 %
238 26-12-2019 15:32:17 5 C 37 %
239 26-12-2019 15:42:17 4.8 C 39 %
240 26-12-2019 15:52:18 4.8 C 39 %
241 26-12-2019 16:02:17 4.7 C 38 %
242 26-12-2019 16:12:17 4.6 C 39 %
243 26-12-2019 16:22:17 4.5 C 40 %
244 26-12-2019 16:32:17 4.4 C 41 %
245 26-12-2019 16:42:18 4.4 C 40 %
246 26-12-2019 16:53:17 4.3 C 41 %
247 26-12-2019 17:02:17 4.4 C 40 %
248 26-12-2019 17:12:17 4.3 C 40 %
249 26-12-2019 17:22:17 4.3 C 40 %
250 26-12-2019 17:32:17 4.4 C 40 %
Sensor: Nr:Datum:Temp:Feuchte:
Aussen-T/F 251 26-12-2019 17:42:17 4.1 C 40 %
252 26-12-2019 17:52:17 4.1 C 40 %
253 26-12-2019 18:02:17 4 C 40 %
254 26-12-2019 18:12:17 4 C 41 %
255 26-12-2019 18:22:17 4.1 C 41 %
256 26-12-2019 18:32:17 4.1 C 41 %
257 26-12-2019 18:42:18 4.1 C 40 %
258 26-12-2019 18:53:17 4.1 C 40 %
259 26-12-2019 19:02:17 4 C 40 %
260 26-12-2019 19:12:17 4 C 41 %
261 26-12-2019 19:23:17 4 C 41 %
262 26-12-2019 19:32:17 3.8 C 41 %
263 26-12-2019 19:42:17 4 C 41 %
264 26-12-2019 19:53:17 3.8 C 41 %
265 26-12-2019 20:02:17 3.8 C 42 %
266 26-12-2019 20:12:17 3.9 C 42 %
267 26-12-2019 20:23:17 4 C 41 %
268 26-12-2019 20:32:17 4.1 C 40 %
269 26-12-2019 20:42:17 4.2 C 39 %
270 26-12-2019 20:53:17 4.1 C 38 %
271 26-12-2019 21:02:17 4.3 C 37 %
272 26-12-2019 21:12:17 4.2 C 38 %
273 26-12-2019 21:23:17 4.1 C 38 %
274 26-12-2019 21:32:18 4.1 C 38 %
275 26-12-2019 21:42:18 4.2 C 37 %
Sensor: Nr:Datum:Temp:Feuchte:
Aussen-T/F 276 26-12-2019 21:52:17 4.3 C 37 %
277 26-12-2019 22:02:18 4.1 C 39 %
278 26-12-2019 22:12:18 4.1 C 41 %
279 26-12-2019 22:22:17 4.1 C 41 %
280 26-12-2019 22:33:17 4.1 C 41 %
281 26-12-2019 22:43:17 4.1 C 42 %
282 26-12-2019 22:52:17 4.1 C 42 %
283 26-12-2019 23:03:17 4.1 C 43 %
284 26-12-2019 23:13:17 4.1 C 43 %
285 26-12-2019 23:23:17 4 C 43 %
286 26-12-2019 23:32:17 4 C 43 %
287 26-12-2019 23:42:17 4 C 42 %
288 26-12-2019 23:53:17 4 C 42 %
289 27-12-2019 00:02:17 4 C 42 %
290 27-12-2019 00:12:17 4 C 42 %
291 27-12-2019 00:23:17 4 C 42 %
292 27-12-2019 00:32:17 4 C 42 %
293 27-12-2019 00:42:18 4.1 C 42 %
294 27-12-2019 00:53:17 4.1 C 42 %
295 27-12-2019 01:03:18 4.1 C 42 %
296 27-12-2019 01:13:18 4.1 C 42 %
297 27-12-2019 01:23:17 4.1 C 42 %
298 27-12-2019 01:33:17 4.1 C 42 %
299 27-12-2019 01:43:17 4.1 C 42 %
300 27-12-2019 01:53:18 4.1 C 42 %
Sensor: Nr:Datum:Temp:Feuchte:
Aussen-T/F 301 27-12-2019 02:03:17 4.1 C 42 %
302 27-12-2019 02:13:17 4.1 C 42 %
303 27-12-2019 02:23:17 4.1 C 42 %
304 27-12-2019 02:33:18 4.1 C 42 %
305 27-12-2019 02:43:19 4.1 C 42 %
306 27-12-2019 02:53:17 4.2 C 42 %
307 27-12-2019 03:03:17 4.3 C 42 %
308 27-12-2019 03:13:17 4.2 C 42 %
309 27-12-2019 03:23:17 4.3 C 42 %
310 27-12-2019 03:33:17 4.3 C 42 %
311 27-12-2019 03:43:18 4.3 C 42 %
312 27-12-2019 03:53:17 4.3 C 42 %
313 27-12-2019 04:03:17 4.3 C 42 %
314 27-12-2019 04:13:17 4.3 C 42 %
315 27-12-2019 04:23:17 4.3 C 42 %
316 27-12-2019 04:33:17 4.3 C 42 %
317 27-12-2019 04:43:17 4.3 C 42 %
318 27-12-2019 04:53:18 4.4 C 42 %
319 27-12-2019 05:03:17 4.4 C 42 %
320 27-12-2019 05:13:17 4.4 C 42 %
321 27-12-2019 05:23:17 4.4 C 42 %
322 27-12-2019 05:33:17 4.3 C 42 %
323 27-12-2019 05:43:17 4.4 C 42 %
324 27-12-2019 05:53:17 4.4 C 42 %
325 27-12-2019 06:03:17 4.4 C 42 %
Sensor: Nr:Datum:Temp:Feuchte:
Aussen-T/F 326 27-12-2019 06:13:17 4.4 C 42 %
327 27-12-2019 06:23:17 4.4 C 42 %
328 27-12-2019 06:33:17 4.4 C 42 %
329 27-12-2019 06:43:17 4.4 C 42 %
330 27-12-2019 06:53:17 4.4 C 42 %
331 27-12-2019 07:03:17 4.5 C 42 %
332 27-12-2019 07:13:17 4.4 C 42 %
333 27-12-2019 07:23:18 4.4 C 42 %
334 27-12-2019 07:33:17 4.4 C 42 %
335 27-12-2019 07:43:17 4.4 C 42 %
336 27-12-2019 07:53:17 4.3 C 42 %
337 27-12-2019 08:03:17 4.3 C 42 %
338 27-12-2019 08:13:17 4.3 C 42 %
339 27-12-2019 08:23:17 4.3 C 42 %
340 27-12-2019 08:33:17 4.3 C 42 %
341 27-12-2019 08:43:17 4.3 C 42 %
342 27-12-2019 08:53:18 4.3 C 42 %
343 27-12-2019 09:03:17 4.4 C 42 %
344 27-12-2019 09:13:17 4.4 C 42 %
345 27-12-2019 09:23:17 4.3 C 42 %
346 27-12-2019 09:33:17 4.5 C 42 %
347 27-12-2019 09:43:17 4.6 C 42 %
348 27-12-2019 09:53:17 4.8 C 41 %
349 27-12-2019 10:03:17 4.9 C 41 %
350 27-12-2019 10:13:17 4.8 C 40 %
Sensor: Nr:Datum:Temp:Feuchte:
Aussen-T/F 351 27-12-2019 10:23:17 4.8 C 40 %
352 27-12-2019 10:33:18 4.9 C 40 %
353 27-12-2019 10:43:18 4.9 C 40 %
354 27-12-2019 10:53:17 5 C 38 %
355 27-12-2019 11:03:18 5 C 38 %
356 27-12-2019 11:13:18 5.1 C 37 %
357 27-12-2019 11:23:17 5.1 C 37 %
358 27-12-2019 11:33:17 5.2 C 36 %
359 27-12-2019 11:43:17 5.7 C 33 %
360 27-12-2019 11:53:17 6 C 31 %
361 27-12-2019 12:03:17 6.1 C 31 %
362 27-12-2019 12:13:17 5.9 C 31 %
363 27-12-2019 12:23:17 5.9 C 31 %
364 27-12-2019 12:33:17 6 C 31 %
365 27-12-2019 12:43:17 6 C 31 %
366 27-12-2019 12:53:17 5.9 C 31 %
367 27-12-2019 13:03:17 5.7 C 31 %
368 27-12-2019 13:13:17 5.7 C 31 %
369 27-12-2019 13:23:17 5.6 C 31 %
370 27-12-2019 13:33:17 5.7 C 31 %
371 27-12-2019 13:43:17 5.7 C 30 %
372 27-12-2019 13:53:17 5.8 C 30 %
373 27-12-2019 14:03:18 5.9 C 30 %
374 27-12-2019 14:13:18 6.1 C 29 %
375 27-12-2019 14:23:18 5.9 C 29 %
Sensor: Nr:Datum:Temp:Feuchte:
Aussen-T/F 376 27-12-2019 14:33:17 6 C 30 %
377 27-12-2019 14:43:17 5.9 C 28 %
378 27-12-2019 14:53:18 5.8 C 26 %
379 27-12-2019 15:03:17 5.7 C 27 %
380 27-12-2019 15:13:17 5.7 C 28 %
381 27-12-2019 15:23:18 5.6 C 29 %
382 27-12-2019 15:33:17 5.6 C 29 %
383 27-12-2019 15:43:17 5.4 C 30 %
384 27-12-2019 15:53:17 5.3 C 31 %
385 27-12-2019 16:03:17 5.1 C 33 %
386 27-12-2019 16:13:17 4.9 C 33 %
387 27-12-2019 16:23:17 4.9 C 33 %
388 27-12-2019 16:33:17 4.8 C 34 %
389 27-12-2019 16:43:17 4.7 C 33 %
390 27-12-2019 16:53:17 4.6 C 34 %
391 27-12-2019 17:03:17 4.5 C 34 %
392 27-12-2019 17:13:17 4.5 C 35 %
393 27-12-2019 17:23:17 4.5 C 33 %
394 27-12-2019 17:33:18 4.5 C 34 %
395 27-12-2019 17:43:18 4.5 C 34 %
396 27-12-2019 17:53:17 4.4 C 34 %
397 27-12-2019 18:03:18 4.4 C 33 %
398 27-12-2019 18:13:18 4.4 C 33 %
399 27-12-2019 18:23:17 4.4 C 32 %
400 27-12-2019 18:33:18 4.4 C 34 %
Sensor: Nr:Datum:Temp:Feuchte:
Aussen-T/F 401 27-12-2019 18:43:18 4.3 C 34 %
402 27-12-2019 18:53:17 4.2 C 33 %
403 27-12-2019 19:03:17 4.2 C 33 %
404 27-12-2019 19:13:17 4.2 C 33 %
405 27-12-2019 19:23:17 4.3 C 32 %
406 27-12-2019 19:33:17 4.2 C 33 %
407 27-12-2019 19:43:17 4.1 C 34 %
408 27-12-2019 19:53:18 3.9 C 35 %
409 27-12-2019 20:03:17 3.8 C 34 %
410 27-12-2019 20:13:17 4 C 32 %
411 27-12-2019 20:23:17 4 C 32 %
412 27-12-2019 20:33:18 4 C 32 %
413 27-12-2019 20:43:18 4 C 31 %
414 27-12-2019 20:53:17 4.1 C 31 %
415 27-12-2019 21:03:18 4.1 C 31 %
416 27-12-2019 21:13:18 4 C 31 %
417 27-12-2019 21:23:17 4 C 31 %
418 27-12-2019 21:33:18 3.9 C 33 %
419 27-12-2019 21:43:18 3.9 C 32 %
420 27-12-2019 21:53:17 3.7 C 32 %
421 27-12-2019 22:03:17 3.6 C 32 %
422 27-12-2019 22:13:17 3.3 C 32 %
423 27-12-2019 22:23:17 3.2 C 32 %
424 27-12-2019 22:33:17 2.7 C 33 %
425 27-12-2019 22:43:17 2.2 C 34 %
Sensor: Nr:Datum:Temp:Feuchte:
Aussen-T/F 426 27-12-2019 22:53:17 2 C 35 %
427 27-12-2019 23:03:18 1.7 C 38 %
428 27-12-2019 23:13:18 1.3 C 39 %
429 27-12-2019 23:23:17 1.2 C 41 %
430 27-12-2019 23:33:17 0.9 C 42 %
431 27-12-2019 23:43:17 0.8 C 41 %
432 27-12-2019 23:53:17 0.7 C 41 %
433 28-12-2019 00:03:17 0.5 C 40 %
434 28-12-2019 00:13:17 0.4 C 41 %
435 28-12-2019 00:23:18 0.4 C 41 %
436 28-12-2019 00:33:17 0.3 C 41 %
437 28-12-2019 00:43:17 0.3 C 41 %
438 28-12-2019 00:53:17 0.2 C 40 %
439 28-12-2019 01:03:17 0.1 C 40 %
440 28-12-2019 01:13:17 -0.2 C 43 %
441 28-12-2019 01:23:17 -0.5 C 43 %
442 28-12-2019 01:33:17 -0.3 C 44 %
443 28-12-2019 01:43:17 -0.7 C 42 %
444 28-12-2019 01:53:17 -1.1 C 43 %
445 28-12-2019 02:03:17 -1.3 C 45 %
446 28-12-2019 02:13:17 -1.5 C 44 %
447 28-12-2019 02:23:17 -1.7 C 44 %
448 28-12-2019 02:33:18 -1.5 C 45 %
449 28-12-2019 02:43:18 -1.5 C 45 %
450 28-12-2019 02:53:17 -1.6 C 45 %
Sensor: Nr:Datum:Temp:Feuchte:
Aussen-T/F 451 28-12-2019 03:03:17 -1.9 C 45 %
452 28-12-2019 03:13:18 -1.7 C 45 %
453 28-12-2019 03:23:17 -2.1 C 45 %
454 28-12-2019 03:33:17 -2.1 C 45 %
455 28-12-2019 03:43:17 -2.1 C 45 %
456 28-12-2019 03:53:18 -2.4 C 45 %
457 28-12-2019 04:03:17 -2.4 C 45 %
458 28-12-2019 04:13:17 -2.4 C 45 %
459 28-12-2019 04:23:17 -2.3 C 45 %
460 28-12-2019 04:33:17 -2.4 C 45 %
461 28-12-2019 04:43:18 -2.3 C 45 %
462 28-12-2019 04:53:17 -2.4 C 45 %
463 28-12-2019 05:03:18 -2.6 C 44 %
464 28-12-2019 05:13:18 -2.7 C 44 %
465 28-12-2019 05:23:17 -2.5 C 45 %
466 28-12-2019 05:33:18 -2.5 C 45 %
467 28-12-2019 05:43:18 -2.1 C 45 %
468 28-12-2019 05:53:17 -2.3 C 45 %
469 28-12-2019 06:03:17 -1.8 C 45 %
470 28-12-2019 06:13:18 -2.1 C 44 %
471 28-12-2019 06:23:17 -2.2 C 43 %
472 28-12-2019 06:33:17 -2 C 44 %
473 28-12-2019 06:43:18 -1.9 C 44 %
474 28-12-2019 06:53:17 -2.1 C 43 %
475 28-12-2019 07:03:18 -2 C 43 %
Sensor: Nr:Datum:Temp:Feuchte:
Aussen-T/F 476 28-12-2019 07:13:18 -2.3 C 43 %
477 28-12-2019 07:23:17 -2.8 C 42 %
478 28-12-2019 07:33:17 -2.3 C 43 %
479 28-12-2019 07:43:17 -2.4 C 43 %
480 28-12-2019 07:53:17 -2.2 C 44 %
481 28-12-2019 08:03:17 -2.6 C 43 %
482 28-12-2019 08:13:17 -3 C 42 %
483 28-12-2019 08:23:18 -3.1 C 42 %
484 28-12-2019 08:33:17 -3.2 C 42 %
485 28-12-2019 08:43:17 -3.2 C 42 %
486 28-12-2019 08:53:17 -2.9 C 43 %
487 28-12-2019 09:03:18 -2.9 C 43 %
488 28-12-2019 09:13:18 -2.8 C 43 %
489 28-12-2019 09:23:17 -2.7 C 43 %
490 28-12-2019 09:33:17 -2.5 C 43 %
491 28-12-2019 09:43:17 -1.9 C 45 %
492 28-12-2019 09:53:17 -1.7 C 45 %
493 28-12-2019 10:03:17 -1.6 C 45 %
494 28-12-2019 10:13:17 -1.4 C 45 %
495 28-12-2019 10:23:17 -1.5 C 45 %
496 28-12-2019 10:33:18 -1.3 C 45 %
497 28-12-2019 10:43:18 -1.3 C 45 %
498 28-12-2019 10:53:17 -1.1 C 45 %
499 28-12-2019 11:03:18 -1 C 44 %
500 28-12-2019 11:13:18 -0.9 C 44 %
Sensor: Nr:Datum:Temp:Feuchte:
Aussen-T/F 501 28-12-2019 11:23:17 -0.6 C 44 %
502 28-12-2019 11:33:17 -0.5 C 43 %
503 28-12-2019 11:43:18 -0.3 C 42 %
504 28-12-2019 11:53:17 -0.2 C 42 %
505 28-12-2019 12:03:17 -0.2 C 41 %
506 28-12-2019 12:13:17 0 C 41 %
507 28-12-2019 12:23:17 0.2 C 41 %
508 28-12-2019 12:33:17 0.3 C 41 %
509 28-12-2019 12:43:18 0.4 C 40 %
510 28-12-2019 12:53:17 0.5 C 40 %
511 28-12-2019 13:03:18 0.7 C 40 %
512 28-12-2019 13:13:18 0.8 C 40 %
513 28-12-2019 13:23:17 0.8 C 40 %
514 28-12-2019 13:33:17 0.9 C 40 %
515 28-12-2019 13:43:17 0.8 C 40 %
516 28-12-2019 13:53:17 0.6 C 40 %
517 28-12-2019 14:03:17 0.6 C 41 %
518 28-12-2019 14:13:17 0.7 C 41 %
519 28-12-2019 14:23:17 0.8 C 40 %
520 28-12-2019 14:33:17 0.7 C 40 %
521 28-12-2019 14:43:17 0.6 C 40 %
522 28-12-2019 14:53:17 0.5 C 40 %
523 28-12-2019 15:03:17 0.5 C 40 %
524 28-12-2019 15:13:18 0.5 C 40 %
525 28-12-2019 15:23:17 0.2 C 40 %
Sensor: Nr:Datum:Temp:Feuchte:
Aussen-T/F 526 28-12-2019 15:33:17 0.4 C 40 %
527 28-12-2019 15:43:17 0.3 C 39 %
528 28-12-2019 15:53:18 0.4 C 39 %
529 28-12-2019 16:03:17 0.3 C 38 %
530 28-12-2019 16:13:17 0.2 C 38 %
531 28-12-2019 16:23:17 0 C 39 %
532 28-12-2019 16:33:17 0 C 39 %
533 28-12-2019 16:43:17 -0.1 C 38 %
534 28-12-2019 16:53:17 -0.3 C 39 %
535 28-12-2019 17:03:17 -0.4 C 39 %
536 28-12-2019 17:13:17 -0.4 C 40 %
537 28-12-2019 17:23:17 -0.5 C 40 %
538 28-12-2019 17:33:18 -0.6 C 40 %
539 28-12-2019 17:43:18 -0.7 C 41 %
540 28-12-2019 17:53:17 -1.3 C 41 %
541 28-12-2019 18:03:17 -1.2 C 44 %
542 28-12-2019 18:13:17 -1.1 C 43 %
543 28-12-2019 18:23:17 -1.1 C 43 %
544 28-12-2019 18:33:17 -0.9 C 43 %
545 28-12-2019 18:43:17 -1.2 C 43 %
546 28-12-2019 18:53:17 -0.9 C 43 %
547 28-12-2019 19:03:17 -1.2 C 42 %
548 28-12-2019 19:13:18 -1.7 C 42 %
549 28-12-2019 19:23:17 -1.9 C 43 %
550 28-12-2019 19:33:18 -1.9 C 44 %
Sensor: Nr:Datum:Temp:Feuchte:
Aussen-T/F 551 28-12-2019 19:43:18 -1.9 C 44 %
552 28-12-2019 19:53:17 -1.8 C 44 %
553 28-12-2019 20:03:17 -1.9 C 44 %
554 28-12-2019 20:13:17 -1.7 C 45 %
555 28-12-2019 20:23:17 -1.2 C 45 %
556 28-12-2019 20:33:18 -1.2 C 43 %
557 28-12-2019 20:43:18 -1.4 C 43 %
558 28-12-2019 20:53:18 -1.2 C 44 %
559 28-12-2019 21:03:17 -1.6 C 43 %
560 28-12-2019 21:13:17 -1.3 C 44 %
561 28-12-2019 21:23:17 -1.4 C 41 %
562 28-12-2019 21:33:17 -1.8 C 41 %
563 28-12-2019 21:43:18 -1.6 C 43 %
564 28-12-2019 21:53:17 -1.7 C 42 %
565 28-12-2019 22:03:18 -1.7 C 42 %
566 28-12-2019 22:13:18 -2.2 C 41 %
567 28-12-2019 22:23:17 -2.3 C 42 %
568 28-12-2019 22:33:17 -2.3 C 42 %
569 28-12-2019 22:43:17 -2.5 C 42 %
570 28-12-2019 22:53:17 -2.2 C 43 %
571 28-12-2019 23:03:17 -2.5 C 42 %
572 28-12-2019 23:13:17 -2.3 C 43 %
573 28-12-2019 23:23:17 -2.3 C 43 %
574 28-12-2019 23:33:17 -2.7 C 42 %
575 28-12-2019 23:43:17 -2.6 C 43 %
Sensor: Nr:Datum:Temp:Feuchte:
Aussen-T/F 576 28-12-2019 23:53:17 -2.9 C 42 %
577 29-12-2019 00:03:18 -2.6 C 43 %
578 29-12-2019 00:13:18 -2.9 C 43 %
579 29-12-2019 00:23:17 -3.1 C 42 %
580 29-12-2019 00:33:17 -3.2 C 43 %
581 29-12-2019 00:43:17 -3.1 C 43 %
582 29-12-2019 00:53:17 -3.1 C 43 %
583 29-12-2019 01:03:17 -3.3 C 42 %
584 29-12-2019 01:13:17 -3.3 C 43 %
585 29-12-2019 01:23:17 -3.5 C 42 %
586 29-12-2019 01:33:17 -3.7 C 42 %
587 29-12-2019 01:43:17 -3 C 44 %
588 29-12-2019 01:53:17 -3.5 C 42 %
589 29-12-2019 02:03:17 -3.7 C 41 %
590 29-12-2019 02:13:17 -3.8 C 42 %
591 29-12-2019 02:23:17 -3.3 C 43 %
592 29-12-2019 02:33:17 -3.7 C 41 %
593 29-12-2019 02:43:17 -3.7 C 42 %
594 29-12-2019 02:53:18 -3.8 C 41 %
595 29-12-2019 03:03:17 -4 C 41 %
596 29-12-2019 03:13:17 -4 C 42 %
597 29-12-2019 03:23:17 -4 C 41 %
598 29-12-2019 03:33:17 -4.1 C 41 %
599 29-12-2019 03:43:17 -4.1 C 41 %
600 29-12-2019 03:53:18 -4 C 42 %
Sensor: Nr:Datum:Temp:Feuchte:
Aussen-T/F 601 29-12-2019 04:03:17 -4.2 C 41 %
602 29-12-2019 04:13:17 -3.9 C 42 %
603 29-12-2019 04:23:17 -4.1 C 41 %
604 29-12-2019 04:33:17 -4.1 C 41 %
605 29-12-2019 04:43:17 -4.4 C 41 %
606 29-12-2019 04:53:17 -4.2 C 41 %
607 29-12-2019 05:03:17 -4.3 C 41 %
608 29-12-2019 05:13:17 -4.5 C 41 %
609 29-12-2019 05:23:17 -4.5 C 41 %
610 29-12-2019 05:33:18 -4.4 C 41 %
611 29-12-2019 05:43:18 -4.5 C 41 %
612 29-12-2019 05:53:17 -4.7 C 41 %
613 29-12-2019 06:03:17 -4.6 C 41 %
614 29-12-2019 06:13:17 -4.7 C 41 %
615 29-12-2019 06:23:17 -4.8 C 41 %
616 29-12-2019 06:33:17 -4.8 C 41 %
617 29-12-2019 06:43:17 -4.8 C 41 %
618 29-12-2019 06:53:17 -4.8 C 41 %
619 29-12-2019 07:03:17 -4.9 C 41 %
620 29-12-2019 07:13:17 -4.9 C 41 %
621 29-12-2019 07:23:17 -5 C 41 %
622 29-12-2019 07:33:17 -4.5 C 42 %
623 29-12-2019 07:43:17 -4.7 C 41 %
624 29-12-2019 07:53:17 -4.7 C 41 %
625 29-12-2019 08:03:17 -4.4 C 42 %
Sensor: Nr:Datum:Temp:Feuchte:
Aussen-T/F 626 29-12-2019 08:13:17 -4.3 C 42 %
627 29-12-2019 08:23:18 -3.9 C 43 %
628 29-12-2019 08:33:17 -4.1 C 41 %
629 29-12-2019 08:43:17 -4.3 C 41 %
630 29-12-2019 08:53:17 -4.5 C 40 %
631 29-12-2019 09:03:17 -4.1 C 42 %
632 29-12-2019 09:13:17 -3.9 C 42 %
633 29-12-2019 09:23:18 -4 C 41 %
634 29-12-2019 09:33:17 -4.1 C 41 %
635 29-12-2019 09:43:17 -4 C 41 %
636 29-12-2019 09:53:17 -4 C 41 %
637 29-12-2019 10:03:18 -4 C 40 %
638 29-12-2019 10:13:18 -3.9 C 41 %
639 29-12-2019 10:23:17 -3.5 C 42 %
640 29-12-2019 10:33:17 -3.3 C 42 %
641 29-12-2019 10:43:17 -3.1 C 42 %
642 29-12-2019 10:53:17 -2.6 C 43 %
643 29-12-2019 11:03:17 -2.1 C 43 %
644 29-12-2019 11:13:17 -1.8 C 42 %
645 29-12-2019 11:23:17 -1.4 C 43 %
646 29-12-2019 11:33:17 -1.3 C 42 %
647 29-12-2019 11:43:18 -0.8 C 43 %
648 29-12-2019 11:53:17 -0.4 C 42 %
649 29-12-2019 12:03:18 -0.5 C 41 %
650 29-12-2019 12:13:18 -0.3 C 41 %
Sensor: Nr:Datum:Temp:Feuchte:
Aussen-T/F 651 29-12-2019 12:23:17 0.1 C 40 %
652 29-12-2019 12:33:17 0.3 C 40 %
653 29-12-2019 12:43:17 0.5 C 40 %
654 29-12-2019 12:53:17 0.4 C 40 %
655 29-12-2019 13:03:17 0.7 C 38 %
656 29-12-2019 13:13:17 1 C 37 %
657 29-12-2019 13:23:17 1 C 37 %
658 29-12-2019 13:33:18 1.4 C 36 %
659 29-12-2019 13:43:18 1.4 C 38 %
660 29-12-2019 13:53:17 1.5 C 37 %
661 29-12-2019 14:03:17 1.5 C 36 %
662 29-12-2019 14:13:17 1.4 C 37 %
663 29-12-2019 14:23:17 1.7 C 36 %
664 29-12-2019 14:33:18 1.9 C 36 %
665 29-12-2019 14:43:18 2.2 C 34 %
666 29-12-2019 14:53:17 2.1 C 33 %
667 29-12-2019 15:03:17 1.9 C 34 %
668 29-12-2019 15:13:18 2 C 31 %
669 29-12-2019 15:23:17 2 C 27 %
670 29-12-2019 15:33:17 1.9 C 30 %
671 29-12-2019 15:43:17 1.5 C 32 %
672 29-12-2019 15:53:18 1.1 C 32 %
673 29-12-2019 16:03:17 0.5 C 35 %
674 29-12-2019 16:13:17 0.2 C 38 %
675 29-12-2019 16:23:17 0.2 C 39 %
Sensor: Nr:Datum:Temp:Feuchte:
Aussen-T/F 676 29-12-2019 16:33:18 -0.3 C 39 %
677 29-12-2019 16:43:18 -0.1 C 40 %
678 29-12-2019 16:53:17 -0.2 C 40 %
679 29-12-2019 17:03:17 -0.2 C 40 %
680 29-12-2019 17:13:17 -0.3 C 39 %
681 29-12-2019 17:23:17 -0.3 C 37 %
682 29-12-2019 17:33:17 -0.3 C 37 %
683 29-12-2019 17:43:17 -0.1 C 36 %
684 29-12-2019 17:53:17 -0.2 C 38 %
685 29-12-2019 18:03:17 -0.1 C 37 %
686 29-12-2019 18:13:17 0.1 C 37 %
687 29-12-2019 18:23:17 0.2 C 36 %
688 29-12-2019 18:33:17 -0.2 C 38 %
689 29-12-2019 18:43:17 -0.5 C 40 %
690 29-12-2019 18:53:17 -0.8 C 40 %
691 29-12-2019 19:03:17 -0.5 C 41 %
692 29-12-2019 19:13:17 -0.7 C 38 %
693 29-12-2019 19:23:18 -0.6 C 37 %
694 29-12-2019 19:33:18 -0.6 C 35 %
695 29-12-2019 19:43:18 -1 C 35 %
696 29-12-2019 19:53:17 -1.1 C 36 %
697 29-12-2019 20:03:18 -0.9 C 34 %
698 29-12-2019 20:13:18 -1.2 C 36 %
699 29-12-2019 20:23:17 -0.7 C 35 %
700 29-12-2019 20:33:17 -1.3 C 37 %
Sensor: Nr:Datum:Temp:Feuchte:
Aussen-T/F 701 29-12-2019 20:43:17 -0.9 C 39 %
702 29-12-2019 20:53:17 -1.5 C 39 %
703 29-12-2019 21:03:17 -1.2 C 38 %
704 29-12-2019 21:13:17 -1.8 C 37 %
705 29-12-2019 21:23:17 -1.8 C 40 %
706 29-12-2019 21:33:18 -1.8 C 41 %
707 29-12-2019 21:43:18 -2.1 C 42 %
708 29-12-2019 21:53:17 -2.3 C 42 %
709 29-12-2019 22:03:17 -2.2 C 43 %
710 29-12-2019 22:13:17 -2.1 C 43 %
711 29-12-2019 22:23:17 -2.4 C 42 %
712 29-12-2019 22:33:17 -2.7 C 42 %
713 29-12-2019 22:43:18 -2.7 C 43 %
714 29-12-2019 22:53:17 -2.7 C 43 %
715 29-12-2019 23:03:17 -2.8 C 43 %
716 29-12-2019 23:13:17 -2.7 C 44 %
717 29-12-2019 23:23:17 -2.8 C 43 %
718 29-12-2019 23:33:18 -3 C 43 %
719 29-12-2019 23:43:18 -3 C 43 %
720 29-12-2019 23:53:17 -3 C 42 %
721 30-12-2019 00:03:17 -3 C 42 %
722 30-12-2019 00:13:17 -3.1 C 41 %
723 30-12-2019 00:23:17 -3.1 C 41 %
724 30-12-2019 00:33:17 -3 C 42 %
725 30-12-2019 00:43:17 -3.2 C 42 %
Sensor: Nr:Datum:Temp:Feuchte:
Aussen-T/F 726 30-12-2019 00:53:17 -3.2 C 42 %
727 30-12-2019 01:03:17 -3.2 C 42 %
728 30-12-2019 01:13:18 -3.1 C 44 %
729 30-12-2019 01:23:17 -3.1 C 43 %
730 30-12-2019 01:33:18 -3.2 C 42 %
731 30-12-2019 01:43:18 -3.4 C 42 %
732 30-12-2019 01:53:17 -3.5 C 42 %
733 30-12-2019 02:03:17 -3.2 C 43 %
734 30-12-2019 02:13:17 -3.4 C 43 %
735 30-12-2019 02:23:17 -3.4 C 43 %
736 30-12-2019 02:33:18 -3.4 C 43 %
737 30-12-2019 02:43:18 -3.4 C 43 %
738 30-12-2019 02:53:17 -3.4 C 43 %
739 30-12-2019 03:03:17 -3.3 C 43 %
740 30-12-2019 03:13:17 -3.4 C 43 %
741 30-12-2019 03:23:17 -3.1 C 43 %
742 30-12-2019 03:33:18 -3.2 C 43 %
743 30-12-2019 03:43:18 -3.3 C 43 %
744 30-12-2019 03:53:17 -3.5 C 43 %
745 30-12-2019 04:03:17 -3.7 C 42 %
746 30-12-2019 04:13:17 -3.8 C 42 %
747 30-12-2019 04:23:17 -3.8 C 42 %
748 30-12-2019 04:33:17 -3.9 C 42 %
749 30-12-2019 04:43:17 -3.9 C 42 %
750 30-12-2019 04:53:17 -4 C 42 %
Sensor: Nr:Datum:Temp:Feuchte:
Aussen-T/F 751 30-12-2019 05:03:17 -3.9 C 42 %
752 30-12-2019 05:13:17 -3.8 C 42 %
753 30-12-2019 05:23:17 -3.9 C 42 %
754 30-12-2019 05:33:17 -3.7 C 43 %
755 30-12-2019 05:43:17 -3.8 C 43 %
756 30-12-2019 05:53:18 -4 C 42 %
757 30-12-2019 06:03:17 -4 C 42 %
758 30-12-2019 06:13:17 -4 C 42 %
759 30-12-2019 06:23:17 -3.9 C 42 %
760 30-12-2019 06:33:17 -3.7 C 43 %
761 30-12-2019 06:43:17 -3.9 C 42 %
762 30-12-2019 06:53:17 -4 C 42 %
763 30-12-2019 07:03:17 -4 C 42 %
764 30-12-2019 07:13:17 -4.2 C 41 %
765 30-12-2019 07:23:17 -4.4 C 42 %
766 30-12-2019 07:33:18 -4.4 C 41 %
767 30-12-2019 07:43:18 -4.4 C 42 %
768 30-12-2019 07:53:17 -4.2 C 42 %
769 30-12-2019 08:03:17 -4.4 C 41 %
770 30-12-2019 08:13:17 -4.3 C 42 %
771 30-12-2019 08:23:17 -4.4 C 42 %
772 30-12-2019 08:33:17 -4.5 C 41 %
773 30-12-2019 08:43:17 -4 C 43 %
774 30-12-2019 08:53:17 -4.2 C 41 %
775 30-12-2019 09:03:18 -4.1 C 42 %
Sensor: Nr:Datum:Temp:Feuchte:
Aussen-T/F 776 30-12-2019 09:13:18 -3.9 C 42 %
777 30-12-2019 09:23:17 -3.8 C 42 %
778 30-12-2019 09:33:17 -3.6 C 43 %
779 30-12-2019 09:43:17 -3.7 C 42 %
780 30-12-2019 09:53:17 -3.7 C 42 %
781 30-12-2019 10:03:17 -3.5 C 42 %
782 30-12-2019 10:13:17 -3.3 C 43 %
783 30-12-2019 10:23:17 -3.3 C 42 %
784 30-12-2019 10:33:17 -3.3 C 42 %
785 30-12-2019 10:43:17 -3 C 43 %
786 30-12-2019 10:53:17 -2.9 C 42 %
787 30-12-2019 11:03:17 -2.9 C 42 %
788 30-12-2019 11:13:17 -2.8 C 42 %
789 30-12-2019 11:23:17 -2.4 C 43 %
790 30-12-2019 11:33:17 -2.1 C 42 %
791 30-12-2019 11:43:17 -2 C 41 %
792 30-12-2019 11:53:18 -2.1 C 40 %
793 30-12-2019 12:03:17 -1.7 C 41 %
794 30-12-2019 12:13:17 -1.5 C 40 %
795 30-12-2019 12:23:17 -1.6 C 40 %
796 30-12-2019 12:33:17 -1.4 C 41 %
797 30-12-2019 12:43:17 -0.7 C 39 %
798 30-12-2019 12:53:17 -0.8 C 39 %
799 30-12-2019 13:03:17 -0.8 C 38 %
800 30-12-2019 13:13:17 -1 C 40 %
Sensor: Nr:Datum:Temp:Feuchte:
Aussen-T/F 801 30-12-2019 13:23:17 -1 C 41 %
802 30-12-2019 13:33:17 -1 C 42 %
803 30-12-2019 13:43:17 -0.6 C 42 %
804 30-12-2019 13:53:17 -0.2 C 41 %
805 30-12-2019 14:03:17 0.3 C 37 %
806 30-12-2019 14:13:17 0.1 C 35 %
807 30-12-2019 14:23:17 0.6 C 35 %
808 30-12-2019 14:33:17 0.5 C 35 %
809 30-12-2019 14:43:17 1 C 32 %
810 30-12-2019 14:53:17 0.6 C 35 %
811 30-12-2019 15:03:17 0.9 C 36 %
812 30-12-2019 15:13:17 1.1 C 33 %
813 30-12-2019 15:23:17 0.6 C 35 %
814 30-12-2019 15:33:18 0.6 C 36 %
815 30-12-2019 15:43:18 0.7 C 35 %
816 30-12-2019 15:53:17 1.6 C 32 %
817 30-12-2019 16:03:18 1.7 C 32 %
818 30-12-2019 16:13:18 1.9 C 31 %
819 30-12-2019 16:23:18 1.6 C 33 %
820 30-12-2019 16:33:17 1.1 C 35 %
821 30-12-2019 16:43:17 0.8 C 37 %
822 30-12-2019 16:53:17 0.6 C 40 %
823 30-12-2019 17:03:17 0.7 C 40 %
824 30-12-2019 17:13:17 0.7 C 40 %
825 30-12-2019 17:23:18 0.6 C 40 %
Sensor: Nr:Datum:Temp:Feuchte:
Aussen-T/F 826 30-12-2019 17:33:17 0.5 C 40 %
827 30-12-2019 17:43:17 0.5 C 40 %
828 30-12-2019 17:53:17 0.5 C 37 %
829 30-12-2019 18:03:17 0.3 C 36 %
830 30-12-2019 18:13:17 -0.3 C 36 %
831 30-12-2019 18:23:18 -0.7 C 37 %
832 30-12-2019 18:33:18 -0.4 C 36 %
833 30-12-2019 18:43:18 -0.2 C 36 %
834 30-12-2019 18:53:17 -0.6 C 34 %
835 30-12-2019 19:03:17 -1.3 C 36 %
836 30-12-2019 19:13:17 -1 C 36 %
837 30-12-2019 19:23:18 -1.4 C 36 %
838 30-12-2019 19:33:17 -1.4 C 39 %
839 30-12-2019 19:43:17 -0.4 C 33 %
840 30-12-2019 19:53:18 0 C 32 %
841 30-12-2019 20:03:17 -0.3 C 31 %
842 30-12-2019 20:13:17 -1.2 C 32 %
843 30-12-2019 20:23:17 -1.6 C 35 %
844 30-12-2019 20:33:17 -1.6 C 36 %
845 30-12-2019 20:43:17 -1.7 C 36 %
846 30-12-2019 20:53:17 -1.5 C 37 %
847 30-12-2019 21:03:17 -1.9 C 37 %
848 30-12-2019 21:13:17 -0.8 C 35 %
849 30-12-2019 21:23:17 -1.1 C 35 %
850 30-12-2019 21:33:17 -0.9 C 35 %
Sensor: Nr:Datum:Temp:Feuchte:
Aussen-T/F 851 30-12-2019 21:43:17 -0.8 C 36 %
852 30-12-2019 21:53:17 -1.1 C 33 %
853 30-12-2019 22:03:17 -1.5 C 35 %
854 30-12-2019 22:13:17 -1.7 C 35 %
855 30-12-2019 22:23:17 -1.7 C 35 %
856 30-12-2019 22:33:17 -2.3 C 35 %
857 30-12-2019 22:43:17 -1.8 C 35 %
858 30-12-2019 22:53:17 -2 C 36 %
859 30-12-2019 23:03:17 -2.3 C 36 %
860 30-12-2019 23:13:17 -1.5 C 36 %
861 30-12-2019 23:23:17 -0.9 C 32 %
862 30-12-2019 23:33:17 -0.3 C 31 %
863 30-12-2019 23:43:17 -0.9 C 31 %
864 30-12-2019 23:53:17 -1 C 31 %
865 31-12-2019 00:03:17 -1.2 C 32 %
866 31-12-2019 00:13:18 -1.4 C 34 %
867 31-12-2019 00:23:17 -1.6 C 36 %
868 31-12-2019 00:33:18 -1.2 C 35 %
869 31-12-2019 00:43:18 -1.5 C 35 %
870 31-12-2019 00:53:17 -1.5 C 36 %
871 31-12-2019 01:03:17 -1.5 C 36 %
872 31-12-2019 01:13:17 -0.8 C 34 %
873 31-12-2019 01:23:18 -1.3 C 34 %
874 31-12-2019 01:33:17 -1.6 C 37 %
875 31-12-2019 01:43:17 -2 C 37 %
Sensor: Nr:Datum:Temp:Feuchte:
Aussen-T/F 876 31-12-2019 01:53:17 -2.3 C 38 %
877 31-12-2019 02:03:17 -2.5 C 40 %
878 31-12-2019 02:13:17 -2.7 C 40 %
879 31-12-2019 02:23:18 -2.8 C 41 %
880 31-12-2019 02:33:17 -3 C 41 %
881 31-12-2019 02:43:17 -2.9 C 43 %
882 31-12-2019 02:53:17 -2 C 45 %
883 31-12-2019 03:03:17 -1.7 C 42 %
884 31-12-2019 03:13:18 -2 C 40 %
885 31-12-2019 03:23:17 -2.4 C 40 %
886 31-12-2019 03:33:18 -2.5 C 41 %
887 31-12-2019 03:43:18 -2.9 C 41 %
888 31-12-2019 03:53:17 -2.8 C 42 %
889 31-12-2019 04:03:17 -2.6 C 43 %
890 31-12-2019 04:13:17 -3.1 C 42 %
891 31-12-2019 04:23:17 -3.2 C 42 %
892 31-12-2019 04:33:17 -3.3 C 42 %
893 31-12-2019 04:43:18 -3.3 C 42 %
894 31-12-2019 04:53:17 -3.2 C 43 %
895 31-12-2019 05:03:17 -3.3 C 42 %
896 31-12-2019 05:13:17 -3.6 C 42 %
897 31-12-2019 05:23:17 -3.4 C 43 %
898 31-12-2019 05:33:17 -3.1 C 44 %
899 31-12-2019 05:43:17 -3 C 44 %
900 31-12-2019 05:53:17 -2.9 C 44 %
Sensor: Nr:Datum:Temp:Feuchte:
Aussen-T/F 901 31-12-2019 06:03:17 -3.1 C 43 %
902 31-12-2019 06:13:17 -3.3 C 43 %
903 31-12-2019 06:23:17 -3.2 C 43 %
904 31-12-2019 06:33:17 -3.3 C 43 %
905 31-12-2019 06:43:17 -3.4 C 43 %
906 31-12-2019 06:53:18 -3.2 C 44 %
907 31-12-2019 07:03:17 -3.2 C 44 %
908 31-12-2019 07:13:17 -3 C 44 %
909 31-12-2019 07:23:17 -3.1 C 44 %
910 31-12-2019 07:33:17 -3 C 44 %
911 31-12-2019 07:43:17 -2.6 C 45 %
912 31-12-2019 07:53:18 -2.1 C 45 %
913 31-12-2019 08:03:17 -2 C 45 %
914 31-12-2019 08:13:17 -2 C 45 %
915 31-12-2019 08:23:17 -1.3 C 45 %
916 31-12-2019 08:33:17 -1 C 44 %
917 31-12-2019 08:43:17 -1 C 43 %
918 31-12-2019 08:53:17 -1.1 C 42 %
919 31-12-2019 09:03:17 -1 C 43 %
920 31-12-2019 09:13:17 -0.9 C 44 %
921 31-12-2019 09:23:17 -1.1 C 42 %
922 31-12-2019 09:33:17 -1.1 C 42 %
923 31-12-2019 09:43:17 -1.1 C 42 %
924 31-12-2019 09:53:17 -0.9 C 43 %
925 31-12-2019 10:03:17 -0.6 C 44 %
Sensor: Nr:Datum:Temp:Feuchte:
Aussen-T/F 926 31-12-2019 10:13:17 -0.2 C 43 %
927 31-12-2019 10:23:17 0.1 C 41 %
928 31-12-2019 10:33:17 0.3 C 40 %
929 31-12-2019 10:43:17 0.3 C 38 %
930 31-12-2019 10:53:18 0.5 C 40 %
931 31-12-2019 11:03:17 0.8 C 41 %
932 31-12-2019 11:13:17 0.7 C 41 %
933 31-12-2019 11:23:17 1.2 C 40 %
934 31-12-2019 11:33:17 1.1 C 38 %
935 31-12-2019 11:43:17 1.5 C 40 %
936 31-12-2019 11:53:17 1.5 C 40 %
937 31-12-2019 12:03:18 1.8 C 31 %
938 31-12-2019 12:13:18 2.4 C 35 %
939 31-12-2019 12:23:17 2.6 C 33 %
940 31-12-2019 12:33:18 2.4 C 32 %
941 31-12-2019 12:43:18 2.8 C 30 %
942 31-12-2019 12:53:17 2.3 C 29 %
943 31-12-2019 13:03:18 2.4 C 28 %
944 31-12-2019 13:13:18 2.4 C 27 %
945 31-12-2019 13:23:17 2.8 C 27 %
946 31-12-2019 13:33:17 2.8 C 26 %
947 31-12-2019 13:43:17 3.3 C 26 %
948 31-12-2019 13:53:17 2.9 C 26 %
949 31-12-2019 14:03:18 2.7 C 27 %
950 31-12-2019 14:13:18 2.9 C 27 %
Sensor: Nr:Datum:Temp:Feuchte:
Aussen-T/F 951 31-12-2019 14:23:17 3.1 C 26 %
952 31-12-2019 14:33:17 3.4 C 26 %
953 31-12-2019 14:43:17 3.2 C 26 %
954 31-12-2019 14:53:17 3 C 26 %
955 31-12-2019 15:03:17 2.8 C 27 %
956 31-12-2019 15:13:17 2.9 C 27 %
957 31-12-2019 15:23:18 3 C 27 %
958 31-12-2019 15:33:17 3 C 27 %
959 31-12-2019 15:43:17 2.9 C 28 %
960 31-12-2019 15:53:17 2.7 C 29 %
961 31-12-2019 16:03:17 2.1 C 30 %
962 31-12-2019 16:13:17 0.9 C 35 %
963 31-12-2019 16:23:18 0.6 C 38 %
964 31-12-2019 16:33:17 0.3 C 40 %
965 31-12-2019 16:43:17 0.2 C 39 %
966 31-12-2019 16:53:18 0.2 C 40 %
967 31-12-2019 17:03:17 -0.1 C 41 %
968 31-12-2019 17:13:17 -0.4 C 41 %
969 31-12-2019 17:23:17 -0.3 C 40 %
970 31-12-2019 17:33:17 -0.3 C 41 %
971 31-12-2019 17:43:17 -0.6 C 43 %
972 31-12-2019 17:53:18 -0.7 C 43 %
973 31-12-2019 18:03:17 -1.1 C 43 %
974 31-12-2019 18:13:17 -1.2 C 45 %
975 31-12-2019 18:23:17 -0.9 C 45 %
Sensor: Nr:Datum:Temp:Feuchte:
Aussen-T/F 976 31-12-2019 18:33:17 -0.8 C 45 %
977 31-12-2019 18:43:17 -0.4 C 46 %
978 31-12-2019 18:53:18 -0.4 C 46 %
979 31-12-2019 19:03:17 -0.3 C 45 %
980 31-12-2019 19:13:17 -0.1 C 46 %
981 31-12-2019 19:23:18 0 C 45 %
982 31-12-2019 19:33:17 0.1 C 45 %
983 31-12-2019 19:43:17 0.2 C 45 %
984 31-12-2019 19:53:17 0.4 C 45 %
985 31-12-2019 20:03:18 0.5 C 45 %
986 31-12-2019 20:13:18 0.5 C 45 %
987 31-12-2019 20:23:17 0.4 C 45 %
988 31-12-2019 20:33:17 0.4 C 45 %
989 31-12-2019 20:43:17 0.3 C 43 %
990 31-12-2019 20:53:17 0.2 C 43 %
991 31-12-2019 21:03:17 0.2 C 43 %
992 31-12-2019 21:13:17 0.4 C 44 %
993 31-12-2019 21:23:18 0.4 C 44 %
994 31-12-2019 21:33:17 0.5 C 44 %
995 31-12-2019 21:43:17 0.6 C 43 %
996 31-12-2019 21:53:17 0.5 C 43 %
997 31-12-2019 22:03:17 0.6 C 42 %
998 31-12-2019 22:13:17 0.5 C 42 %
999 31-12-2019 22:23:18 0.2 C 41 %
1000 31-12-2019 22:33:17 0 C 41 %
Sensor: Nr:Datum:Temp:Feuchte:
Aussen-T/F 1001 31-12-2019 22:43:17 -0.2 C 42 %
1002 31-12-2019 22:53:17 -0.4 C 43 %
1003 31-12-2019 23:03:17 -0.3 C 44 %
1004 31-12-2019 23:13:17 -0.1 C 45 %
1005 31-12-2019 23:23:18 0 C 45 %
1006 31-12-2019 23:33:17 0 C 45 %
1007 31-12-2019 23:43:17 0.4 C 45 %
1008 31-12-2019 23:53:18 0.3 C 45 %
Sensor: Nr:Datum:Temp:Feuchte:
G-T/H 1 25-12-2019 00:02:17 10.2 C 76 %
2 25-12-2019 00:12:17 10.2 C 76 %
3 25-12-2019 00:22:17 10.2 C 76 %
4 25-12-2019 00:32:17 10.2 C 76 %
5 25-12-2019 00:42:18 10.2 C 76 %
6 25-12-2019 00:52:17 10.2 C 76 %
7 25-12-2019 01:02:17 10.2 C 76 %
8 25-12-2019 01:12:17 10.2 C 76 %
9 25-12-2019 01:22:17 10.2 C 76 %
10 25-12-2019 01:32:18 10.2 C 76 %
11 25-12-2019 01:42:18 10.2 C 76 %
12 25-12-2019 01:52:17 10.2 C 76 %
13 25-12-2019 02:02:17 10.2 C 76 %
14 25-12-2019 02:12:17 10.2 C 76 %
15 25-12-2019 02:22:17 10.2 C 76 %
16 25-12-2019 02:32:18 10.2 C 76 %
17 25-12-2019 02:42:18 10.2 C 76 %
18 25-12-2019 02:52:17 10.2 C 76 %
19 25-12-2019 03:02:17 10.2 C 76 %
20 25-12-2019 03:12:17 10.2 C 76 %
21 25-12-2019 03:22:17 10.2 C 76 %
22 25-12-2019 03:32:17 10.2 C 76 %
23 25-12-2019 03:42:17 10.2 C 76 %
24 25-12-2019 03:52:18 10.2 C 76 %
25 25-12-2019 04:02:17 10.2 C 76 %
Sensor: Nr:Datum:Temp:Feuchte:
G-T/H 26 25-12-2019 04:12:17 10.2 C 76 %
27 25-12-2019 04:22:18 10.2 C 76 %
28 25-12-2019 04:32:17 10.2 C 76 %
29 25-12-2019 04:42:17 10.2 C 76 %
30 25-12-2019 04:52:17 10.2 C 76 %
31 25-12-2019 05:02:17 10.2 C 76 %
32 25-12-2019 05:12:17 10.2 C 76 %
33 25-12-2019 05:22:18 10.2 C 76 %
34 25-12-2019 05:32:17 10.2 C 76 %
35 25-12-2019 05:42:17 10.2 C 76 %
36 25-12-2019 05:52:17 10.2 C 76 %
37 25-12-2019 06:02:18 10.2 C 76 %
38 25-12-2019 06:12:18 10.2 C 76 %
39 25-12-2019 06:22:17 10.2 C 76 %
40 25-12-2019 06:32:18 10.2 C 76 %
41 25-12-2019 06:42:18 10.2 C 76 %
42 25-12-2019 06:52:17 10.2 C 76 %
43 25-12-2019 07:02:18 10.2 C 76 %
44 25-12-2019 07:12:18 10.2 C 76 %
45 25-12-2019 07:22:17 10.2 C 76 %
46 25-12-2019 07:32:18 10.2 C 76 %
47 25-12-2019 07:42:18 10.2 C 76 %
48 25-12-2019 07:52:17 10.2 C 76 %
49 25-12-2019 08:02:18 10.2 C 76 %
50 25-12-2019 08:12:18 10.2 C 76 %
Sensor: Nr:Datum:Temp:Feuchte:
G-T/H 51 25-12-2019 08:22:17 10.2 C 76 %
52 25-12-2019 08:32:17 10.2 C 76 %
53 25-12-2019 08:42:17 10.2 C 76 %
54 25-12-2019 08:52:17 10.2 C 76 %
55 25-12-2019 09:02:17 10.2 C 76 %
56 25-12-2019 09:12:17 10.2 C 76 %
57 25-12-2019 09:22:18 10.2 C 76 %
58 25-12-2019 09:32:17 10.2 C 76 %
59 25-12-2019 09:42:17 10.2 C 76 %
60 25-12-2019 09:52:17 10.2 C 76 %
61 25-12-2019 10:02:17 10.2 C 76 %
62 25-12-2019 10:12:17 10.2 C 76 %
63 25-12-2019 10:22:18 10.2 C 76 %
64 25-12-2019 10:32:17 10.2 C 76 %
65 25-12-2019 10:42:17 10.2 C 76 %
66 25-12-2019 10:52:17 10.3 C 76 %
67 25-12-2019 11:02:17 10.3 C 76 %
68 25-12-2019 11:12:17 10.3 C 76 %
69 25-12-2019 11:22:17 10.2 C 76 %
70 25-12-2019 11:32:17 10.3 C 76 %
71 25-12-2019 11:42:17 10.2 C 76 %
72 25-12-2019 11:52:18 10.3 C 76 %
73 25-12-2019 12:02:17 10.2 C 76 %
74 25-12-2019 12:12:17 10.2 C 76 %
75 25-12-2019 12:22:17 10.3 C 76 %
Sensor: Nr:Datum:Temp:Feuchte:
G-T/H 76 25-12-2019 12:32:17 10.3 C 76 %
77 25-12-2019 12:42:17 10.3 C 76 %
78 25-12-2019 12:52:18 10.3 C 76 %
79 25-12-2019 13:02:17 10.3 C 76 %
80 25-12-2019 13:12:17 10.2 C 76 %
81 25-12-2019 13:22:18 10.3 C 76 %
82 25-12-2019 13:32:17 10.3 C 76 %
83 25-12-2019 13:42:17 10.2 C 76 %
84 25-12-2019 13:52:17 10.2 C 76 %
85 25-12-2019 14:02:17 10.3 C 76 %
86 25-12-2019 14:12:17 10.3 C 76 %
87 25-12-2019 14:22:18 10.3 C 76 %
88 25-12-2019 14:32:17 10.3 C 76 %
89 25-12-2019 14:42:17 10.3 C 76 %
90 25-12-2019 14:52:17 10.3 C 76 %
91 25-12-2019 15:02:17 10.2 C 76 %
92 25-12-2019 15:12:17 10.3 C 76 %
93 25-12-2019 15:22:18 10.3 C 76 %
94 25-12-2019 15:32:17 10.3 C 76 %
95 25-12-2019 15:42:17 10.3 C 76 %
96 25-12-2019 15:52:17 10.3 C 76 %
97 25-12-2019 16:02:17 10.3 C 76 %
98 25-12-2019 16:12:17 10.3 C 76 %
99 25-12-2019 16:22:17 10.3 C 76 %
100 25-12-2019 16:32:17 10.3 C 76 %
Sensor: Nr:Datum:Temp:Feuchte:
G-T/H 101 25-12-2019 16:42:17 10.3 C 76 %
102 25-12-2019 16:52:17 10.3 C 76 %
103 25-12-2019 17:02:17 10.3 C 76 %
104 25-12-2019 17:12:17 10.3 C 76 %
105 25-12-2019 17:22:18 10.3 C 76 %
106 25-12-2019 17:32:17 10.3 C 76 %
107 25-12-2019 17:42:17 10.3 C 76 %
108 25-12-2019 17:52:18 10.3 C 76 %
109 25-12-2019 18:02:17 10.3 C 76 %
110 25-12-2019 18:12:17 10.3 C 76 %
111 25-12-2019 18:22:17 10.3 C 76 %
112 25-12-2019 18:32:17 10.3 C 76 %
113 25-12-2019 18:42:17 10.3 C 76 %
114 25-12-2019 18:52:17 10.3 C 76 %
115 25-12-2019 19:02:17 10.3 C 76 %
116 25-12-2019 19:12:17 10.3 C 76 %
117 25-12-2019 19:22:17 10.3 C 76 %
118 25-12-2019 19:32:18 10.3 C 76 %
119 25-12-2019 19:42:18 10.3 C 76 %
120 25-12-2019 19:52:17 10.3 C 76 %
121 25-12-2019 20:02:17 10.3 C 76 %
122 25-12-2019 20:12:17 10.3 C 76 %
123 25-12-2019 20:22:18 10.3 C 76 %
124 25-12-2019 20:32:17 10.3 C 76 %
125 25-12-2019 20:42:17 10.3 C 76 %
Sensor: Nr:Datum:Temp:Feuchte:
G-T/H 126 25-12-2019 20:52:17 10.3 C 76 %
127 25-12-2019 21:02:18 10.3 C 76 %
128 25-12-2019 21:12:18 10.3 C 76 %
129 25-12-2019 21:22:17 10.3 C 76 %
130 25-12-2019 21:32:17 10.3 C 76 %
131 25-12-2019 21:42:17 10.3 C 76 %
132 25-12-2019 21:52:17 10.2 C 76 %
133 25-12-2019 22:02:18 10.3 C 76 %
134 25-12-2019 22:12:18 10.3 C 76 %
135 25-12-2019 22:22:17 10.3 C 76 %
136 25-12-2019 22:32:18 10.3 C 76 %
137 25-12-2019 22:42:18 10.3 C 76 %
138 25-12-2019 22:52:17 10.2 C 76 %
139 25-12-2019 23:02:18 10.2 C 76 %
140 25-12-2019 23:12:18 10.3 C 75 %
141 25-12-2019 23:22:17 10.2 C 75 %
142 25-12-2019 23:32:17 10.2 C 75 %
143 25-12-2019 23:42:17 10.2 C 75 %
144 25-12-2019 23:52:17 10.2 C 75 %
145 26-12-2019 00:02:17 10.2 C 75 %
146 26-12-2019 00:12:18 10.2 C 75 %
147 26-12-2019 00:22:17 10.2 C 75 %
148 26-12-2019 00:32:18 10.2 C 75 %
149 26-12-2019 00:42:18 10.2 C 75 %
150 26-12-2019 00:52:17 10.2 C 75 %
Sensor: Nr:Datum:Temp:Feuchte:
G-T/H 151 26-12-2019 01:02:18 10.2 C 75 %
152 26-12-2019 01:12:18 10.2 C 75 %
153 26-12-2019 01:22:17 10.2 C 75 %
154 26-12-2019 01:32:17 10.2 C 75 %
155 26-12-2019 01:42:17 10.2 C 75 %
156 26-12-2019 01:52:17 10.2 C 75 %
157 26-12-2019 02:02:18 10.2 C 75 %
158 26-12-2019 02:12:18 10.1 C 75 %
159 26-12-2019 02:22:17 10.1 C 75 %
160 26-12-2019 02:32:17 10.2 C 75 %
161 26-12-2019 02:42:17 10.2 C 75 %
162 26-12-2019 02:52:17 10.1 C 75 %
163 26-12-2019 03:02:18 10.1 C 75 %
164 26-12-2019 03:12:18 10.2 C 75 %
165 26-12-2019 03:22:17 10.2 C 75 %
166 26-12-2019 03:32:17 10.2 C 75 %
167 26-12-2019 03:42:17 10.1 C 75 %
168 26-12-2019 03:52:17 10.1 C 75 %
169 26-12-2019 04:02:17 10.1 C 75 %
170 26-12-2019 04:12:17 10.1 C 75 %
171 26-12-2019 04:22:18 10.1 C 75 %
172 26-12-2019 04:32:17 10.1 C 75 %
173 26-12-2019 04:42:17 10.1 C 75 %
174 26-12-2019 04:52:17 10 C 75 %
175 26-12-2019 05:02:17 10 C 75 %
Sensor: Nr:Datum:Temp:Feuchte:
G-T/H 176 26-12-2019 05:12:17 10.1 C 74 %
177 26-12-2019 05:22:17 10 C 74 %
178 26-12-2019 05:32:18 10 C 74 %
179 26-12-2019 05:42:18 10 C 74 %
180 26-12-2019 05:52:17 10 C 74 %
181 26-12-2019 06:02:17 10 C 74 %
182 26-12-2019 06:12:18 10 C 74 %
183 26-12-2019 06:22:17 10 C 74 %
184 26-12-2019 06:32:18 10 C 74 %
185 26-12-2019 06:42:18 10 C 74 %
186 26-12-2019 06:52:17 10 C 74 %
187 26-12-2019 07:02:18 10 C 74 %
188 26-12-2019 07:12:18 10 C 74 %
189 26-12-2019 07:22:17 10 C 74 %
190 26-12-2019 07:32:17 10 C 74 %
191 26-12-2019 07:42:17 10 C 74 %
192 26-12-2019 07:52:17 10 C 74 %
193 26-12-2019 08:02:18 9.9 C 75 %
194 26-12-2019 08:12:18 9.9 C 75 %
195 26-12-2019 08:22:17 9.9 C 75 %
196 26-12-2019 08:32:17 9.9 C 75 %
197 26-12-2019 08:42:17 9.9 C 75 %
198 26-12-2019 08:52:17 9.9 C 75 %
199 26-12-2019 09:02:17 9.9 C 75 %
200 26-12-2019 09:12:17 9.9 C 75 %
Sensor: Nr:Datum:Temp:Feuchte:
G-T/H 201 26-12-2019 09:22:17 9.9 C 75 %
202 26-12-2019 09:32:17 9.9 C 75 %
203 26-12-2019 09:42:17 9.9 C 75 %
204 26-12-2019 09:52:18 9.9 C 75 %
205 26-12-2019 10:02:17 9.9 C 75 %
206 26-12-2019 10:12:17 9.9 C 75 %
207 26-12-2019 10:22:18 9.9 C 75 %
208 26-12-2019 10:32:17 9.9 C 75 %
209 26-12-2019 10:42:17 9.9 C 75 %
210 26-12-2019 10:52:18 9.9 C 75 %
211 26-12-2019 11:02:17 9.9 C 75 %
212 26-12-2019 11:12:17 9.9 C 75 %
213 26-12-2019 11:22:17 9.9 C 75 %
214 26-12-2019 11:32:17 9.9 C 75 %
215 26-12-2019 11:42:17 9.9 C 75 %
216 26-12-2019 11:52:17 9.9 C 75 %
217 26-12-2019 12:02:17 9.9 C 75 %
218 26-12-2019 12:12:17 9.9 C 75 %
219 26-12-2019 12:22:17 9.9 C 75 %
220 26-12-2019 12:32:18 9.9 C 75 %
221 26-12-2019 12:42:18 9.9 C 76 %
222 26-12-2019 12:52:17 9.9 C 76 %
223 26-12-2019 13:02:18 9.9 C 76 %
224 26-12-2019 13:12:18 9.9 C 76 %
225 26-12-2019 13:22:17 9.9 C 76 %
Sensor: Nr:Datum:Temp:Feuchte:
G-T/H 226 26-12-2019 13:32:18 9.8 C 76 %
227 26-12-2019 13:42:18 9.9 C 76 %
228 26-12-2019 13:52:17 9.8 C 76 %
229 26-12-2019 14:02:18 9.9 C 76 %
230 26-12-2019 14:12:18 9.8 C 76 %
231 26-12-2019 14:22:17 9.8 C 76 %
232 26-12-2019 14:32:17 9.9 C 76 %
233 26-12-2019 14:42:17 9.9 C 76 %
234 26-12-2019 14:52:17 9.9 C 76 %
235 26-12-2019 15:02:17 9.9 C 76 %
236 26-12-2019 15:12:17 9.9 C 76 %
237 26-12-2019 15:22:17 9.9 C 76 %
238 26-12-2019 15:32:17 9.8 C 76 %
239 26-12-2019 15:42:17 9.8 C 76 %
240 26-12-2019 15:52:18 9.8 C 76 %
241 26-12-2019 16:02:17 9.8 C 76 %
242 26-12-2019 16:12:17 9.9 C 76 %
243 26-12-2019 16:22:17 9.8 C 76 %
244 26-12-2019 16:32:17 9.8 C 76 %
245 26-12-2019 16:42:18 9.8 C 76 %
246 26-12-2019 16:53:17 9.8 C 76 %
247 26-12-2019 17:02:17 9.8 C 76 %
248 26-12-2019 17:12:17 9.8 C 76 %
249 26-12-2019 17:22:17 9.8 C 76 %
250 26-12-2019 17:32:17 9.8 C 76 %
Sensor: Nr:Datum:Temp:Feuchte:
G-T/H 251 26-12-2019 17:42:17 9.8 C 76 %
252 26-12-2019 17:52:17 9.8 C 76 %
253 26-12-2019 18:02:17 9.8 C 76 %
254 26-12-2019 18:12:17 9.8 C 76 %
255 26-12-2019 18:22:17 9.8 C 76 %
256 26-12-2019 18:32:17 9.8 C 76 %
257 26-12-2019 18:42:18 9.8 C 76 %
258 26-12-2019 18:53:17 9.8 C 76 %
259 26-12-2019 19:02:17 9.8 C 76 %
260 26-12-2019 19:12:17 9.8 C 76 %
261 26-12-2019 19:23:17 9.8 C 76 %
262 26-12-2019 19:32:17 9.8 C 76 %
263 26-12-2019 19:42:17 9.8 C 76 %
264 26-12-2019 19:53:17 9.8 C 76 %
265 26-12-2019 20:02:17 9.8 C 76 %
266 26-12-2019 20:12:17 9.8 C 76 %
267 26-12-2019 20:23:17 9.8 C 76 %
268 26-12-2019 20:32:17 9.8 C 76 %
269 26-12-2019 20:42:17 9.8 C 76 %
270 26-12-2019 20:53:17 9.8 C 76 %
271 26-12-2019 21:02:17 9.8 C 76 %
272 26-12-2019 21:12:17 9.8 C 76 %
273 26-12-2019 21:23:17 9.8 C 76 %
274 26-12-2019 21:32:18 9.8 C 76 %
275 26-12-2019 21:42:18 9.8 C 75 %
Sensor: Nr:Datum:Temp:Feuchte:
G-T/H 276 26-12-2019 21:52:17 9.8 C 75 %
277 26-12-2019 22:02:18 9.8 C 75 %
278 26-12-2019 22:12:18 9.8 C 75 %
279 26-12-2019 22:22:17 9.8 C 75 %
280 26-12-2019 22:33:17 9.8 C 75 %
281 26-12-2019 22:43:17 9.8 C 75 %
282 26-12-2019 22:52:17 9.8 C 75 %
283 26-12-2019 23:03:17 9.8 C 75 %
284 26-12-2019 23:13:17 9.8 C 75 %
285 26-12-2019 23:23:17 9.8 C 75 %
286 26-12-2019 23:32:17 9.7 C 75 %
287 26-12-2019 23:42:17 9.7 C 75 %
288 26-12-2019 23:53:17 9.7 C 75 %
289 27-12-2019 00:02:17 9.7 C 75 %
290 27-12-2019 00:12:17 9.7 C 75 %
291 27-12-2019 00:23:17 9.7 C 75 %
292 27-12-2019 00:32:17 9.7 C 75 %
293 27-12-2019 00:42:18 9.7 C 75 %
294 27-12-2019 00:53:17 9.7 C 75 %
295 27-12-2019 01:03:18 9.7 C 75 %
296 27-12-2019 01:13:18 9.7 C 75 %
297 27-12-2019 01:23:17 9.7 C 75 %
298 27-12-2019 01:33:17 9.7 C 75 %
299 27-12-2019 01:43:17 9.7 C 75 %
300 27-12-2019 01:53:18 9.7 C 75 %
Sensor: Nr:Datum:Temp:Feuchte:
G-T/H 301 27-12-2019 02:03:17 9.7 C 75 %
302 27-12-2019 02:13:17 9.7 C 75 %
303 27-12-2019 02:23:17 9.7 C 75 %
304 27-12-2019 02:33:18 9.8 C 75 %
305 27-12-2019 02:43:19 9.7 C 75 %
306 27-12-2019 02:53:17 9.7 C 75 %
307 27-12-2019 03:03:17 9.7 C 75 %
308 27-12-2019 03:13:17 9.7 C 75 %
309 27-12-2019 03:23:17 9.7 C 75 %
310 27-12-2019 03:33:17 9.7 C 75 %
311 27-12-2019 03:43:18 9.7 C 75 %
312 27-12-2019 03:53:17 9.7 C 75 %
313 27-12-2019 04:03:17 9.7 C 75 %
314 27-12-2019 04:13:17 9.7 C 75 %
315 27-12-2019 04:23:17 9.7 C 75 %
316 27-12-2019 04:33:17 9.7 C 75 %
317 27-12-2019 04:43:17 9.7 C 75 %
318 27-12-2019 04:53:18 9.7 C 75 %
319 27-12-2019 05:03:17 9.7 C 75 %
320 27-12-2019 05:13:17 9.7 C 75 %
321 27-12-2019 05:23:17 9.7 C 75 %
322 27-12-2019 05:33:17 9.7 C 75 %
323 27-12-2019 05:43:17 9.7 C 75 %
324 27-12-2019 05:53:17 9.7 C 75 %
325 27-12-2019 06:03:17 9.7 C 75 %
Sensor: Nr:Datum:Temp:Feuchte:
G-T/H 326 27-12-2019 06:13:17 9.7 C 75 %
327 27-12-2019 06:23:17 9.7 C 75 %
328 27-12-2019 06:33:17 9.7 C 76 %
329 27-12-2019 06:43:17 9.7 C 76 %
330 27-12-2019 06:53:17 9.7 C 76 %
331 27-12-2019 07:03:17 9.7 C 76 %
332 27-12-2019 07:13:17 9.7 C 76 %
333 27-12-2019 07:23:18 9.7 C 76 %
334 27-12-2019 07:33:17 9.7 C 76 %
335 27-12-2019 07:43:17 9.7 C 76 %
336 27-12-2019 07:53:17 9.7 C 76 %
337 27-12-2019 08:03:17 9.7 C 76 %
338 27-12-2019 08:13:17 9.7 C 76 %
339 27-12-2019 08:23:17 9.7 C 76 %
340 27-12-2019 08:33:17 9.7 C 76 %
341 27-12-2019 08:43:17 9.7 C 76 %
342 27-12-2019 08:53:18 9.7 C 76 %
343 27-12-2019 09:03:17 9.7 C 76 %
344 27-12-2019 09:13:17 9.7 C 76 %
345 27-12-2019 09:23:17 9.7 C 76 %
346 27-12-2019 09:33:17 9.7 C 76 %
347 27-12-2019 09:43:17 9.7 C 76 %
348 27-12-2019 09:53:17 9.7 C 76 %
349 27-12-2019 10:03:17 9.7 C 76 %
350 27-12-2019 10:13:17 9.6 C 76 %
Sensor: Nr:Datum:Temp:Feuchte:
G-T/H 351 27-12-2019 10:23:17 9.7 C 76 %
352 27-12-2019 10:33:18 9.7 C 76 %
353 27-12-2019 10:43:18 9.7 C 76 %
354 27-12-2019 10:53:17 9.7 C 76 %
355 27-12-2019 11:03:18 9.7 C 76 %
356 27-12-2019 11:13:18 9.7 C 76 %
357 27-12-2019 11:23:17 9.7 C 76 %
358 27-12-2019 11:33:17 9.7 C 76 %
359 27-12-2019 11:43:17 9.6 C 76 %
360 27-12-2019 11:53:17 9.7 C 76 %
361 27-12-2019 12:03:17 9.7 C 76 %
362 27-12-2019 12:13:17 9.7 C 76 %
363 27-12-2019 12:23:17 9.7 C 76 %
364 27-12-2019 12:33:17 9.7 C 76 %
365 27-12-2019 12:43:17 9.7 C 76 %
366 27-12-2019 12:53:17 9.7 C 76 %
367 27-12-2019 13:03:17 9.7 C 76 %
368 27-12-2019 13:13:17 9.6 C 76 %
369 27-12-2019 13:23:17 9.7 C 76 %
370 27-12-2019 13:33:17 9.7 C 76 %
371 27-12-2019 13:43:17 9.7 C 76 %
372 27-12-2019 13:53:17 9.7 C 76 %
373 27-12-2019 14:03:18 9.7 C 76 %
374 27-12-2019 14:13:18 9.7 C 76 %
375 27-12-2019 14:23:18 9.7 C 76 %
Sensor: Nr:Datum:Temp:Feuchte:
G-T/H 376 27-12-2019 14:33:17 9.7 C 76 %
377 27-12-2019 14:43:17 9.7 C 76 %
378 27-12-2019 14:53:18 9.7 C 76 %
379 27-12-2019 15:03:17 9.7 C 76 %
380 27-12-2019 15:13:17 9.7 C 76 %
381 27-12-2019 15:23:18 9.7 C 76 %
382 27-12-2019 15:33:17 9.7 C 76 %
383 27-12-2019 15:43:17 9.7 C 76 %
384 27-12-2019 15:53:17 9.7 C 76 %
385 27-12-2019 16:03:17 9.7 C 76 %
386 27-12-2019 16:13:17 9.7 C 76 %
387 27-12-2019 16:23:17 9.7 C 76 %
388 27-12-2019 16:33:17 9.7 C 76 %
389 27-12-2019 16:43:17 9.7 C 76 %
390 27-12-2019 16:53:17 9.7 C 76 %
391 27-12-2019 17:03:17 9.7 C 76 %
392 27-12-2019 17:13:17 9.7 C 76 %
393 27-12-2019 17:23:17 9.7 C 76 %
394 27-12-2019 17:33:18 9.7 C 76 %
395 27-12-2019 17:43:18 9.7 C 76 %
396 27-12-2019 17:53:17 9.7 C 76 %
397 27-12-2019 18:03:18 9.7 C 76 %
398 27-12-2019 18:13:18 9.7 C 76 %
399 27-12-2019 18:23:17 9.7 C 76 %
400 27-12-2019 18:33:18 9.7 C 76 %
Sensor: Nr:Datum:Temp:Feuchte:
G-T/H 401 27-12-2019 18:43:18 9.7 C 76 %
402 27-12-2019 18:53:17 9.7 C 76 %
403 27-12-2019 19:03:17 9.7 C 76 %
404 27-12-2019 19:13:17 9.7 C 76 %
405 27-12-2019 19:23:17 9.7 C 76 %
406 27-12-2019 19:33:17 9.7 C 76 %
407 27-12-2019 19:43:17 9.7 C 76 %
408 27-12-2019 19:53:18 9.7 C 76 %
409 27-12-2019 20:03:17 9.7 C 76 %
410 27-12-2019 20:13:17 9.7 C 76 %
411 27-12-2019 20:23:17 9.7 C 76 %
412 27-12-2019 20:33:18 9.7 C 76 %
413 27-12-2019 20:43:18 9.7 C 75 %
414 27-12-2019 20:53:17 9.7 C 75 %
415 27-12-2019 21:03:18 9.7 C 75 %
416 27-12-2019 21:13:18 9.7 C 75 %
417 27-12-2019 21:23:17 9.7 C 75 %
418 27-12-2019 21:33:18 9.7 C 75 %
419 27-12-2019 21:43:18 9.7 C 75 %
420 27-12-2019 21:53:17 9.7 C 75 %
421 27-12-2019 22:03:17 9.7 C 75 %
422 27-12-2019 22:13:17 9.7 C 75 %
423 27-12-2019 22:23:17 9.7 C 75 %
424 27-12-2019 22:33:17 9.7 C 75 %
425 27-12-2019 22:43:17 9.7 C 75 %
Sensor: Nr:Datum:Temp:Feuchte:
G-T/H 426 27-12-2019 22:53:17 9.7 C 75 %
427 27-12-2019 23:03:18 9.6 C 75 %
428 27-12-2019 23:13:18 9.6 C 75 %
429 27-12-2019 23:23:17 9.6 C 75 %
430 27-12-2019 23:33:17 9.6 C 75 %
431 27-12-2019 23:43:17 9.6 C 75 %
432 27-12-2019 23:53:17 9.6 C 74 %
433 28-12-2019 00:03:17 9.6 C 74 %
434 28-12-2019 00:13:17 9.6 C 74 %
435 28-12-2019 00:23:18 9.6 C 74 %
436 28-12-2019 00:33:17 9.6 C 74 %
437 28-12-2019 00:43:17 9.6 C 74 %
438 28-12-2019 00:53:17 9.5 C 74 %
439 28-12-2019 01:03:17 9.6 C 74 %
440 28-12-2019 01:13:17 9.5 C 74 %
441 28-12-2019 01:23:17 9.5 C 74 %
442 28-12-2019 01:33:17 9.5 C 74 %
443 28-12-2019 01:43:17 9.5 C 74 %
444 28-12-2019 01:53:17 9.5 C 74 %
445 28-12-2019 02:03:17 9.4 C 73 %
446 28-12-2019 02:13:17 9.4 C 73 %
447 28-12-2019 02:23:17 9.5 C 73 %
448 28-12-2019 02:33:18 9.3 C 73 %
449 28-12-2019 02:43:18 9.4 C 73 %
450 28-12-2019 02:53:17 9.3 C 73 %
Sensor: Nr:Datum:Temp:Feuchte:
G-T/H 451 28-12-2019 03:03:17 9.3 C 73 %
452 28-12-2019 03:13:18 9.3 C 73 %
453 28-12-2019 03:23:17 9.3 C 73 %
454 28-12-2019 03:33:17 9.2 C 73 %
455 28-12-2019 03:43:17 9.3 C 73 %
456 28-12-2019 03:53:18 9.3 C 73 %
457 28-12-2019 04:03:17 9.2 C 73 %
458 28-12-2019 04:13:17 9.2 C 72 %
459 28-12-2019 04:23:17 9.2 C 72 %
460 28-12-2019 04:33:17 9.2 C 72 %
461 28-12-2019 04:43:18 9.2 C 72 %
462 28-12-2019 04:53:17 9.1 C 72 %
463 28-12-2019 05:03:18 9.1 C 72 %
464 28-12-2019 05:13:18 9.1 C 72 %
465 28-12-2019 05:23:17 9 C 72 %
466 28-12-2019 05:33:18 9.1 C 72 %
467 28-12-2019 05:43:18 9 C 72 %
468 28-12-2019 05:53:17 9.1 C 72 %
469 28-12-2019 06:03:17 9 C 72 %
470 28-12-2019 06:13:18 9 C 72 %
471 28-12-2019 06:23:17 9 C 72 %
472 28-12-2019 06:33:17 9 C 72 %
473 28-12-2019 06:43:18 9 C 71 %
474 28-12-2019 06:53:17 8.9 C 72 %
475 28-12-2019 07:03:18 8.8 C 72 %
Sensor: Nr:Datum:Temp:Feuchte:
G-T/H 476 28-12-2019 07:13:18 8.9 C 72 %
477 28-12-2019 07:23:17 8.9 C 72 %
478 28-12-2019 07:33:17 8.9 C 72 %
479 28-12-2019 07:43:17 8.8 C 72 %
480 28-12-2019 07:53:17 8.8 C 72 %
481 28-12-2019 08:03:17 8.8 C 72 %
482 28-12-2019 08:13:17 8.8 C 72 %
483 28-12-2019 08:23:18 8.7 C 72 %
484 28-12-2019 08:33:17 8.7 C 72 %
485 28-12-2019 08:43:17 8.7 C 72 %
486 28-12-2019 08:53:17 8.7 C 72 %
487 28-12-2019 09:03:18 8.7 C 72 %
488 28-12-2019 09:13:18 8.7 C 72 %
489 28-12-2019 09:23:17 8.6 C 72 %
490 28-12-2019 09:33:17 8.6 C 72 %
491 28-12-2019 09:43:17 6.6 C 62 %
492 28-12-2019 09:53:17 5.6 C 61 %
493 28-12-2019 10:03:17 5.2 C 61 %
494 28-12-2019 10:13:17 5.1 C 61 %
495 28-12-2019 10:23:17 5.4 C 61 %
496 28-12-2019 10:33:18 7.2 C 62 %
497 28-12-2019 10:43:18 8 C 62 %
498 28-12-2019 10:53:17 8.2 C 63 %
499 28-12-2019 11:03:18 8.2 C 64 %
500 28-12-2019 11:13:18 8.2 C 64 %
Sensor: Nr:Datum:Temp:Feuchte:
G-T/H 501 28-12-2019 11:23:17 8.2 C 65 %
502 28-12-2019 11:33:17 8.2 C 65 %
503 28-12-2019 11:43:18 8.2 C 66 %
504 28-12-2019 11:53:17 8.3 C 67 %
505 28-12-2019 12:03:17 8.4 C 67 %
506 28-12-2019 12:13:17 8.4 C 67 %
507 28-12-2019 12:23:17 8.3 C 68 %
508 28-12-2019 12:33:17 8.3 C 68 %
509 28-12-2019 12:43:18 8.2 C 68 %
510 28-12-2019 12:53:17 8.2 C 68 %
511 28-12-2019 13:03:18 8.2 C 69 %
512 28-12-2019 13:13:18 8.2 C 69 %
513 28-12-2019 13:23:17 8.2 C 69 %
514 28-12-2019 13:33:17 8.2 C 69 %
515 28-12-2019 13:43:17 8.2 C 69 %
516 28-12-2019 13:53:17 8.2 C 69 %
517 28-12-2019 14:03:17 8.2 C 69 %
518 28-12-2019 14:13:17 8.1 C 70 %
519 28-12-2019 14:23:17 8.2 C 70 %
520 28-12-2019 14:33:17 8.2 C 70 %
521 28-12-2019 14:43:17 8.2 C 70 %
522 28-12-2019 14:53:17 8.1 C 70 %
523 28-12-2019 15:03:17 8.1 C 70 %
524 28-12-2019 15:13:18 8.1 C 70 %
525 28-12-2019 15:23:17 8.1 C 70 %
Sensor: Nr:Datum:Temp:Feuchte:
G-T/H 526 28-12-2019 15:33:17 8.1 C 70 %
527 28-12-2019 15:43:17 8 C 70 %
528 28-12-2019 15:53:18 8.1 C 70 %
529 28-12-2019 16:03:17 7.8 C 69 %
530 28-12-2019 16:13:17 7.9 C 69 %
531 28-12-2019 16:23:17 8 C 68 %
532 28-12-2019 16:33:17 8 C 69 %
533 28-12-2019 16:43:17 8 C 69 %
534 28-12-2019 16:53:17 8 C 69 %
535 28-12-2019 17:03:17 8 C 69 %
536 28-12-2019 17:13:17 8 C 69 %
537 28-12-2019 17:23:17 8 C 69 %
538 28-12-2019 17:33:18 8 C 69 %
539 28-12-2019 17:43:18 8 C 69 %
540 28-12-2019 17:53:17 8 C 69 %
541 28-12-2019 18:03:17 7.9 C 70 %
542 28-12-2019 18:13:17 8 C 69 %
543 28-12-2019 18:23:17 8 C 69 %
544 28-12-2019 18:33:17 7.9 C 70 %
545 28-12-2019 18:43:17 8 C 70 %
546 28-12-2019 18:53:17 8 C 70 %
547 28-12-2019 19:03:17 8 C 70 %
548 28-12-2019 19:13:18 7.9 C 71 %
549 28-12-2019 19:23:17 7.9 C 71 %
550 28-12-2019 19:33:18 7.9 C 71 %
Sensor: Nr:Datum:Temp:Feuchte:
G-T/H 551 28-12-2019 19:43:18 7.9 C 71 %
552 28-12-2019 19:53:17 7.9 C 71 %
553 28-12-2019 20:03:17 7.9 C 71 %
554 28-12-2019 20:13:17 7.9 C 71 %
555 28-12-2019 20:23:17 7.9 C 71 %
556 28-12-2019 20:33:18 7.9 C 71 %
557 28-12-2019 20:43:18 7.9 C 71 %
558 28-12-2019 20:53:18 7.9 C 71 %
559 28-12-2019 21:03:17 7.9 C 71 %
560 28-12-2019 21:13:17 7.9 C 71 %
561 28-12-2019 21:23:17 7.9 C 71 %
562 28-12-2019 21:33:17 7.9 C 71 %
563 28-12-2019 21:43:18 7.8 C 71 %
564 28-12-2019 21:53:17 7.8 C 71 %
565 28-12-2019 22:03:18 7.8 C 71 %
566 28-12-2019 22:13:18 7.8 C 71 %
567 28-12-2019 22:23:17 7.8 C 71 %
568 28-12-2019 22:33:17 7.8 C 71 %
569 28-12-2019 22:43:17 7.8 C 71 %
570 28-12-2019 22:53:17 7.8 C 71 %
571 28-12-2019 23:03:17 7.8 C 71 %
572 28-12-2019 23:13:17 7.8 C 71 %
573 28-12-2019 23:23:17 7.8 C 71 %
574 28-12-2019 23:33:17 7.8 C 70 %
575 28-12-2019 23:43:17 7.7 C 70 %
Sensor: Nr:Datum:Temp:Feuchte:
G-T/H 576 28-12-2019 23:53:17 7.7 C 70 %
577 29-12-2019 00:03:18 7.7 C 70 %
578 29-12-2019 00:13:18 7.7 C 70 %
579 29-12-2019 00:23:17 7.7 C 70 %
580 29-12-2019 00:33:17 7.7 C 70 %
581 29-12-2019 00:43:17 7.7 C 70 %
582 29-12-2019 00:53:17 7.7 C 70 %
583 29-12-2019 01:03:17 7.6 C 70 %
584 29-12-2019 01:13:17 7.6 C 70 %
585 29-12-2019 01:23:17 7.6 C 70 %
586 29-12-2019 01:33:17 7.6 C 70 %
587 29-12-2019 01:43:17 7.6 C 70 %
588 29-12-2019 01:53:17 7.6 C 70 %
589 29-12-2019 02:03:17 7.6 C 70 %
590 29-12-2019 02:13:17 7.5 C 70 %
591 29-12-2019 02:23:17 7.5 C 70 %
592 29-12-2019 02:33:17 7.5 C 70 %
593 29-12-2019 02:43:17 7.5 C 70 %
594 29-12-2019 02:53:18 7.5 C 70 %
595 29-12-2019 03:03:17 7.5 C 70 %
596 29-12-2019 03:13:17 7.5 C 70 %
597 29-12-2019 03:23:17 7.5 C 70 %
598 29-12-2019 03:33:17 7.5 C 70 %
599 29-12-2019 03:43:17 7.5 C 70 %
600 29-12-2019 03:53:18 7.5 C 70 %
Sensor: Nr:Datum:Temp:Feuchte:
G-T/H 601 29-12-2019 04:03:17 7.5 C 70 %
602 29-12-2019 04:13:17 7.4 C 70 %
603 29-12-2019 04:23:17 7.4 C 70 %
604 29-12-2019 04:33:17 7.4 C 70 %
605 29-12-2019 04:43:17 7.4 C 70 %
606 29-12-2019 04:53:17 7.4 C 69 %
607 29-12-2019 05:03:17 7.4 C 69 %
608 29-12-2019 05:13:17 7.4 C 69 %
609 29-12-2019 05:23:17 7.4 C 69 %
610 29-12-2019 05:33:18 7.4 C 69 %
611 29-12-2019 05:43:18 7.3 C 69 %
612 29-12-2019 05:53:17 7.3 C 69 %
613 29-12-2019 06:03:17 7.3 C 69 %
614 29-12-2019 06:13:17 7.3 C 69 %
615 29-12-2019 06:23:17 7.3 C 69 %
616 29-12-2019 06:33:17 7.3 C 69 %
617 29-12-2019 06:43:17 7.3 C 69 %
618 29-12-2019 06:53:17 7.3 C 69 %
619 29-12-2019 07:03:17 7.3 C 69 %
620 29-12-2019 07:13:17 7.3 C 69 %
621 29-12-2019 07:23:17 7.2 C 69 %
622 29-12-2019 07:33:17 7.2 C 69 %
623 29-12-2019 07:43:17 7.2 C 69 %
624 29-12-2019 07:53:17 7.2 C 69 %
625 29-12-2019 08:03:17 7.2 C 69 %
Sensor: Nr:Datum:Temp:Feuchte:
G-T/H 626 29-12-2019 08:13:17 7.2 C 69 %
627 29-12-2019 08:23:18 7.1 C 69 %
628 29-12-2019 08:33:17 7.2 C 69 %
629 29-12-2019 08:43:17 7.1 C 69 %
630 29-12-2019 08:53:17 7.1 C 69 %
631 29-12-2019 09:03:17 7.1 C 69 %
632 29-12-2019 09:13:17 7.1 C 69 %
633 29-12-2019 09:23:18 7.1 C 69 %
634 29-12-2019 09:33:17 7.1 C 69 %
635 29-12-2019 09:43:17 7.3 C 69 %
636 29-12-2019 09:53:17 7.4 C 69 %
637 29-12-2019 10:03:18 7.4 C 69 %
638 29-12-2019 10:13:18 7.4 C 69 %
639 29-12-2019 10:23:17 7.4 C 69 %
640 29-12-2019 10:33:17 7.3 C 69 %
641 29-12-2019 10:43:17 7.3 C 69 %
642 29-12-2019 10:53:17 7.3 C 69 %
643 29-12-2019 11:03:17 7.3 C 69 %
644 29-12-2019 11:13:17 7.3 C 69 %
645 29-12-2019 11:23:17 7.2 C 69 %
646 29-12-2019 11:33:17 7.2 C 69 %
647 29-12-2019 11:43:18 7.2 C 69 %
648 29-12-2019 11:53:17 7.2 C 69 %
649 29-12-2019 12:03:18 7.2 C 69 %
650 29-12-2019 12:13:18 7.2 C 69 %
Sensor: Nr:Datum:Temp:Feuchte:
G-T/H 651 29-12-2019 12:23:17 7.2 C 69 %
652 29-12-2019 12:33:17 7.2 C 69 %
653 29-12-2019 12:43:17 7.2 C 69 %
654 29-12-2019 12:53:17 7.2 C 70 %
655 29-12-2019 13:03:17 7.1 C 70 %
656 29-12-2019 13:13:17 7.1 C 70 %
657 29-12-2019 13:23:17 7.1 C 70 %
658 29-12-2019 13:33:18 7.1 C 70 %
659 29-12-2019 13:43:18 7.1 C 70 %
660 29-12-2019 13:53:17 7.1 C 70 %
661 29-12-2019 14:03:17 7.1 C 70 %
662 29-12-2019 14:13:17 7.1 C 70 %
663 29-12-2019 14:23:17 7.1 C 70 %
664 29-12-2019 14:33:18 7.1 C 70 %
665 29-12-2019 14:43:18 7.1 C 70 %
666 29-12-2019 14:53:17 7.1 C 70 %
667 29-12-2019 15:03:17 7.1 C 70 %
668 29-12-2019 15:13:18 7.1 C 70 %
669 29-12-2019 15:23:17 7.1 C 70 %
670 29-12-2019 15:33:17 7.1 C 70 %
671 29-12-2019 15:43:17 7.1 C 70 %
672 29-12-2019 15:53:18 7.1 C 70 %
673 29-12-2019 16:03:17 7.1 C 70 %
674 29-12-2019 16:13:17 7.1 C 70 %
675 29-12-2019 16:23:17 7.1 C 70 %
Sensor: Nr:Datum:Temp:Feuchte:
G-T/H 676 29-12-2019 16:33:18 7.1 C 70 %
677 29-12-2019 16:43:18 7.1 C 70 %
678 29-12-2019 16:53:17 7.1 C 70 %
679 29-12-2019 17:03:17 7.1 C 70 %
680 29-12-2019 17:13:17 7 C 70 %
681 29-12-2019 17:23:17 7 C 70 %
682 29-12-2019 17:33:17 7 C 70 %
683 29-12-2019 17:43:17 7 C 70 %
684 29-12-2019 17:53:17 7 C 70 %
685 29-12-2019 18:03:17 7 C 70 %
686 29-12-2019 18:13:17 7 C 70 %
687 29-12-2019 18:23:17 7.1 C 70 %
688 29-12-2019 18:33:17 7 C 70 %
689 29-12-2019 18:43:17 7 C 70 %
690 29-12-2019 18:53:17 7 C 70 %
691 29-12-2019 19:03:17 7 C 70 %
692 29-12-2019 19:13:17 7 C 70 %
693 29-12-2019 19:23:18 7 C 70 %
694 29-12-2019 19:33:18 7 C 70 %
695 29-12-2019 19:43:18 7 C 70 %
696 29-12-2019 19:53:17 7 C 70 %
697 29-12-2019 20:03:18 7 C 70 %
698 29-12-2019 20:13:18 7 C 70 %
699 29-12-2019 20:23:17 7 C 70 %
700 29-12-2019 20:33:17 7 C 70 %
Sensor: Nr:Datum:Temp:Feuchte:
G-T/H 701 29-12-2019 20:43:17 7 C 70 %
702 29-12-2019 20:53:17 7 C 70 %
703 29-12-2019 21:03:17 7 C 70 %
704 29-12-2019 21:13:17 7 C 70 %
705 29-12-2019 21:23:17 7 C 70 %
706 29-12-2019 21:33:18 7 C 70 %
707 29-12-2019 21:43:18 7 C 70 %
708 29-12-2019 21:53:17 7 C 70 %
709 29-12-2019 22:03:17 6.8 C 71 %
710 29-12-2019 22:13:17 7 C 70 %
711 29-12-2019 22:23:17 7 C 70 %
712 29-12-2019 22:33:17 7 C 70 %
713 29-12-2019 22:43:18 7 C 70 %
714 29-12-2019 22:53:17 7 C 70 %
715 29-12-2019 23:03:17 6.9 C 71 %
716 29-12-2019 23:13:17 6.9 C 71 %
717 29-12-2019 23:23:17 7 C 70 %
718 29-12-2019 23:33:18 7.1 C 70 %
719 29-12-2019 23:43:18 7.1 C 70 %
720 29-12-2019 23:53:17 7.1 C 70 %
721 30-12-2019 00:03:17 7.1 C 70 %
722 30-12-2019 00:13:17 7.1 C 70 %
723 30-12-2019 00:23:17 7.1 C 70 %
724 30-12-2019 00:33:17 7.1 C 70 %
725 30-12-2019 00:43:17 7 C 70 %
Sensor: Nr:Datum:Temp:Feuchte:
G-T/H 726 30-12-2019 00:53:17 7 C 70 %
727 30-12-2019 01:03:17 7 C 70 %
728 30-12-2019 01:13:18 7 C 70 %
729 30-12-2019 01:23:17 7 C 70 %
730 30-12-2019 01:33:18 7 C 70 %
731 30-12-2019 01:43:18 7 C 70 %
732 30-12-2019 01:53:17 7 C 70 %
733 30-12-2019 02:03:17 7 C 70 %
734 30-12-2019 02:13:17 7 C 70 %
735 30-12-2019 02:23:17 7 C 70 %
736 30-12-2019 02:33:18 6.9 C 71 %
737 30-12-2019 02:43:18 6.9 C 71 %
738 30-12-2019 02:53:17 7 C 70 %
739 30-12-2019 03:03:17 7.1 C 70 %
740 30-12-2019 03:13:17 7.1 C 70 %
741 30-12-2019 03:23:17 7.1 C 69 %
742 30-12-2019 03:33:18 7.1 C 69 %
743 30-12-2019 03:43:18 7 C 69 %
744 30-12-2019 03:53:17 7 C 69 %
745 30-12-2019 04:03:17 7 C 69 %
746 30-12-2019 04:13:17 7 C 69 %
747 30-12-2019 04:23:17 7 C 69 %
748 30-12-2019 04:33:17 6.9 C 70 %
749 30-12-2019 04:43:17 7 C 69 %
750 30-12-2019 04:53:17 6.9 C 70 %
Sensor: Nr:Datum:Temp:Feuchte:
G-T/H 751 30-12-2019 05:03:17 6.9 C 70 %
752 30-12-2019 05:13:17 6.9 C 70 %
753 30-12-2019 05:23:17 6.9 C 70 %
754 30-12-2019 05:33:17 6.9 C 70 %
755 30-12-2019 05:43:17 7 C 69 %
756 30-12-2019 05:53:18 7.2 C 69 %
757 30-12-2019 06:03:17 7.2 C 69 %
758 30-12-2019 06:13:17 7.2 C 69 %
759 30-12-2019 06:23:17 7.1 C 69 %
760 30-12-2019 06:33:17 7.1 C 69 %
761 30-12-2019 06:43:17 7 C 69 %
762 30-12-2019 06:53:17 7 C 69 %
763 30-12-2019 07:03:17 7 C 69 %
764 30-12-2019 07:13:17 6.9 C 70 %
765 30-12-2019 07:23:17 6.9 C 70 %
766 30-12-2019 07:33:18 6.9 C 70 %
767 30-12-2019 07:43:18 6.9 C 70 %
768 30-12-2019 07:53:17 6.9 C 70 %
769 30-12-2019 08:03:17 6.9 C 70 %
770 30-12-2019 08:13:17 6.9 C 70 %
771 30-12-2019 08:23:17 6.9 C 70 %
772 30-12-2019 08:33:17 6.8 C 70 %
773 30-12-2019 08:43:17 6.8 C 70 %
774 30-12-2019 08:53:17 6.8 C 70 %
775 30-12-2019 09:03:18 6.9 C 70 %
Sensor: Nr:Datum:Temp:Feuchte:
G-T/H 776 30-12-2019 09:13:18 7.2 C 69 %
777 30-12-2019 09:23:17 7.2 C 68 %
778 30-12-2019 09:33:17 7.2 C 68 %
779 30-12-2019 09:43:17 7.1 C 68 %
780 30-12-2019 09:53:17 7.1 C 68 %
781 30-12-2019 10:03:17 7 C 68 %
782 30-12-2019 10:13:17 7 C 68 %
783 30-12-2019 10:23:17 7 C 68 %
784 30-12-2019 10:33:17 6.9 C 69 %
785 30-12-2019 10:43:17 6.9 C 69 %
786 30-12-2019 10:53:17 6.9 C 69 %
787 30-12-2019 11:03:17 6.8 C 69 %
788 30-12-2019 11:13:17 6.9 C 69 %
789 30-12-2019 11:23:17 6.8 C 69 %
790 30-12-2019 11:33:17 6.9 C 69 %
791 30-12-2019 11:43:17 6.8 C 69 %
792 30-12-2019 11:53:18 6.8 C 69 %
793 30-12-2019 12:03:17 6.8 C 69 %
794 30-12-2019 12:13:17 7 C 69 %
795 30-12-2019 12:23:17 7.2 C 69 %
796 30-12-2019 12:33:17 7.2 C 69 %
797 30-12-2019 12:43:17 7.2 C 68 %
798 30-12-2019 12:53:17 7 C 68 %
799 30-12-2019 13:03:17 7 C 68 %
800 30-12-2019 13:13:17 7 C 68 %
Sensor: Nr:Datum:Temp:Feuchte:
G-T/H 801 30-12-2019 13:23:17 7 C 68 %
802 30-12-2019 13:33:17 7 C 68 %
803 30-12-2019 13:43:17 7 C 68 %
804 30-12-2019 13:53:17 6.9 C 69 %
805 30-12-2019 14:03:17 6.9 C 69 %
806 30-12-2019 14:13:17 6.9 C 69 %
807 30-12-2019 14:23:17 6.8 C 69 %
808 30-12-2019 14:33:17 6.8 C 69 %
809 30-12-2019 14:43:17 6.9 C 70 %
810 30-12-2019 14:53:17 6.9 C 70 %
811 30-12-2019 15:03:17 6.9 C 70 %
812 30-12-2019 15:13:17 6.8 C 70 %
813 30-12-2019 15:23:17 6.8 C 70 %
814 30-12-2019 15:33:18 6.8 C 70 %
815 30-12-2019 15:43:18 6.9 C 70 %
816 30-12-2019 15:53:17 7.2 C 69 %
817 30-12-2019 16:03:18 7.2 C 69 %
818 30-12-2019 16:13:18 7.1 C 69 %
819 30-12-2019 16:23:18 7.3 C 69 %
820 30-12-2019 16:33:17 7.6 C 69 %
821 30-12-2019 16:43:17 7.7 C 69 %
822 30-12-2019 16:53:17 7.8 C 69 %
823 30-12-2019 17:03:17 7.8 C 69 %
824 30-12-2019 17:13:17 7.9 C 69 %
825 30-12-2019 17:23:18 7.8 C 69 %
Sensor: Nr:Datum:Temp:Feuchte:
G-T/H 826 30-12-2019 17:33:17 7.9 C 69 %
827 30-12-2019 17:43:17 7.9 C 69 %
828 30-12-2019 17:53:17 7.9 C 69 %
829 30-12-2019 18:03:17 7.9 C 69 %
830 30-12-2019 18:13:17 7.9 C 69 %
831 30-12-2019 18:23:18 7.9 C 69 %
832 30-12-2019 18:33:18 7.9 C 69 %
833 30-12-2019 18:43:18 7.9 C 69 %
834 30-12-2019 18:53:17 7.9 C 69 %
835 30-12-2019 19:03:17 7.9 C 69 %
836 30-12-2019 19:13:17 7.9 C 69 %
837 30-12-2019 19:23:18 7.8 C 69 %
838 30-12-2019 19:33:17 7.8 C 68 %
839 30-12-2019 19:43:17 7.7 C 68 %
840 30-12-2019 19:53:18 7.7 C 68 %
841 30-12-2019 20:03:17 7.7 C 68 %
842 30-12-2019 20:13:17 7.6 C 68 %
843 30-12-2019 20:23:17 7.5 C 68 %
844 30-12-2019 20:33:17 7.5 C 68 %
845 30-12-2019 20:43:17 7.5 C 68 %
846 30-12-2019 20:53:17 7.4 C 68 %
847 30-12-2019 21:03:17 7.4 C 68 %
848 30-12-2019 21:13:17 7.4 C 68 %
849 30-12-2019 21:23:17 7.4 C 68 %
850 30-12-2019 21:33:17 7.4 C 68 %
Sensor: Nr:Datum:Temp:Feuchte:
G-T/H 851 30-12-2019 21:43:17 7.3 C 68 %
852 30-12-2019 21:53:17 7.4 C 68 %
853 30-12-2019 22:03:17 7.3 C 68 %
854 30-12-2019 22:13:17 7.3 C 68 %
855 30-12-2019 22:23:17 7.3 C 68 %
856 30-12-2019 22:33:17 7.3 C 68 %
857 30-12-2019 22:43:17 7.3 C 68 %
858 30-12-2019 22:53:17 7.3 C 68 %
859 30-12-2019 23:03:17 7.3 C 68 %
860 30-12-2019 23:13:17 7.2 C 68 %
861 30-12-2019 23:23:17 7.2 C 68 %
862 30-12-2019 23:33:17 7.2 C 68 %
863 30-12-2019 23:43:17 7.2 C 68 %
864 30-12-2019 23:53:17 7.2 C 69 %
865 31-12-2019 00:03:17 7.2 C 69 %
866 31-12-2019 00:13:18 7.1 C 69 %
867 31-12-2019 00:23:17 7.1 C 69 %
868 31-12-2019 00:33:18 7.1 C 69 %
869 31-12-2019 00:43:18 7.1 C 69 %
870 31-12-2019 00:53:17 7.1 C 69 %
871 31-12-2019 01:03:17 7.1 C 69 %
872 31-12-2019 01:13:17 7.1 C 69 %
873 31-12-2019 01:23:18 7 C 69 %
874 31-12-2019 01:33:17 7 C 69 %
875 31-12-2019 01:43:17 7 C 69 %
Sensor: Nr:Datum:Temp:Feuchte:
G-T/H 876 31-12-2019 01:53:17 7 C 69 %
877 31-12-2019 02:03:17 7 C 69 %
878 31-12-2019 02:13:17 7 C 69 %
879 31-12-2019 02:23:18 7 C 69 %
880 31-12-2019 02:33:17 6.9 C 70 %
881 31-12-2019 02:43:17 6.9 C 70 %
882 31-12-2019 02:53:17 6.9 C 70 %
883 31-12-2019 03:03:17 6.9 C 70 %
884 31-12-2019 03:13:18 6.9 C 70 %
885 31-12-2019 03:23:17 6.9 C 70 %
886 31-12-2019 03:33:18 6.9 C 70 %
887 31-12-2019 03:43:18 6.8 C 70 %
888 31-12-2019 03:53:17 6.8 C 70 %
889 31-12-2019 04:03:17 6.8 C 70 %
890 31-12-2019 04:13:17 6.9 C 70 %
891 31-12-2019 04:23:17 7 C 69 %
892 31-12-2019 04:33:17 7 C 69 %
893 31-12-2019 04:43:18 7 C 69 %
894 31-12-2019 04:53:17 7 C 69 %
895 31-12-2019 05:03:17 7 C 69 %
896 31-12-2019 05:13:17 6.9 C 69 %
897 31-12-2019 05:23:17 6.9 C 69 %
898 31-12-2019 05:33:17 6.9 C 69 %
899 31-12-2019 05:43:17 6.8 C 69 %
900 31-12-2019 05:53:17 6.8 C 70 %
Sensor: Nr:Datum:Temp:Feuchte:
G-T/H 901 31-12-2019 06:03:17 6.8 C 70 %
902 31-12-2019 06:13:17 6.8 C 70 %
903 31-12-2019 06:23:17 6.8 C 70 %
904 31-12-2019 06:33:17 6.8 C 70 %
905 31-12-2019 06:43:17 6.8 C 70 %
906 31-12-2019 06:53:18 6.8 C 70 %
907 31-12-2019 07:03:17 6.7 C 70 %
908 31-12-2019 07:13:17 6.7 C 70 %
909 31-12-2019 07:23:17 6.7 C 70 %
910 31-12-2019 07:33:17 6.7 C 70 %
911 31-12-2019 07:43:17 6.7 C 70 %
912 31-12-2019 07:53:18 6.7 C 70 %
913 31-12-2019 08:03:17 6.7 C 70 %
914 31-12-2019 08:13:17 6.7 C 70 %
915 31-12-2019 08:23:17 6.7 C 70 %
916 31-12-2019 08:33:17 6.7 C 70 %
917 31-12-2019 08:43:17 6.6 C 70 %
918 31-12-2019 08:53:17 6.9 C 70 %
919 31-12-2019 09:03:17 7.2 C 69 %
920 31-12-2019 09:13:17 7.3 C 69 %
921 31-12-2019 09:23:17 7.3 C 69 %
922 31-12-2019 09:33:17 7.3 C 68 %
923 31-12-2019 09:43:17 7.3 C 68 %
924 31-12-2019 09:53:17 7.2 C 68 %
925 31-12-2019 10:03:17 7.2 C 68 %
Sensor: Nr:Datum:Temp:Feuchte:
G-T/H 926 31-12-2019 10:13:17 7.1 C 68 %
927 31-12-2019 10:23:17 7.1 C 69 %
928 31-12-2019 10:33:17 7.1 C 69 %
929 31-12-2019 10:43:17 6.9 C 69 %
930 31-12-2019 10:53:18 6.9 C 69 %
931 31-12-2019 11:03:17 6.9 C 69 %
932 31-12-2019 11:13:17 6.9 C 69 %
933 31-12-2019 11:23:17 6.9 C 69 %
934 31-12-2019 11:33:17 6.9 C 70 %
935 31-12-2019 11:43:17 6.9 C 70 %
936 31-12-2019 11:53:17 6.9 C 70 %
937 31-12-2019 12:03:18 6.9 C 70 %
938 31-12-2019 12:13:18 6.9 C 70 %
939 31-12-2019 12:23:17 6.9 C 70 %
940 31-12-2019 12:33:18 6.9 C 70 %
941 31-12-2019 12:43:18 6.9 C 70 %
942 31-12-2019 12:53:17 6.9 C 70 %
943 31-12-2019 13:03:18 6.9 C 70 %
944 31-12-2019 13:13:18 6.8 C 70 %
945 31-12-2019 13:23:17 6.8 C 71 %
946 31-12-2019 13:33:17 6.9 C 71 %
947 31-12-2019 13:43:17 6.9 C 71 %
948 31-12-2019 13:53:17 6.9 C 71 %
949 31-12-2019 14:03:18 6.9 C 71 %
950 31-12-2019 14:13:18 6.9 C 71 %
Sensor: Nr:Datum:Temp:Feuchte:
G-T/H 951 31-12-2019 14:23:17 6.8 C 71 %
952 31-12-2019 14:33:17 6.8 C 71 %
953 31-12-2019 14:43:17 6.8 C 71 %
954 31-12-2019 14:53:17 6.8 C 71 %
955 31-12-2019 15:03:17 6.9 C 71 %
956 31-12-2019 15:13:17 6.8 C 71 %
957 31-12-2019 15:23:18 6.9 C 71 %
958 31-12-2019 15:33:17 6.9 C 71 %
959 31-12-2019 15:43:17 6.9 C 71 %
960 31-12-2019 15:53:17 6.9 C 71 %
961 31-12-2019 16:03:17 6.9 C 71 %
962 31-12-2019 16:13:17 6.9 C 71 %
963 31-12-2019 16:23:18 6.8 C 71 %
964 31-12-2019 16:33:17 6.9 C 71 %
965 31-12-2019 16:43:17 6.9 C 71 %
966 31-12-2019 16:53:18 6.9 C 71 %
967 31-12-2019 17:03:17 6.9 C 71 %
968 31-12-2019 17:13:17 6.9 C 71 %
969 31-12-2019 17:23:17 6.8 C 71 %
970 31-12-2019 17:33:17 6.9 C 71 %
971 31-12-2019 17:43:17 6.8 C 71 %
972 31-12-2019 17:53:18 6.8 C 71 %
973 31-12-2019 18:03:17 6.7 C 71 %
974 31-12-2019 18:13:17 6.4 C 69 %
975 31-12-2019 18:23:17 6.7 C 69 %
Sensor: Nr:Datum:Temp:Feuchte:
G-T/H 976 31-12-2019 18:33:17 7.1 C 69 %
977 31-12-2019 18:43:17 7.2 C 69 %
978 31-12-2019 18:53:18 7.2 C 69 %
979 31-12-2019 19:03:17 7.2 C 69 %
980 31-12-2019 19:13:17 7.2 C 69 %
981 31-12-2019 19:23:18 7.1 C 69 %
982 31-12-2019 19:33:17 7.1 C 69 %
983 31-12-2019 19:43:17 7.1 C 69 %
984 31-12-2019 19:53:17 7.1 C 70 %
985 31-12-2019 20:03:18 7.1 C 70 %
986 31-12-2019 20:13:18 7 C 70 %
987 31-12-2019 20:23:17 7 C 70 %
988 31-12-2019 20:33:17 7 C 70 %
989 31-12-2019 20:43:17 7 C 70 %
990 31-12-2019 20:53:17 7 C 70 %
991 31-12-2019 21:03:17 7 C 70 %
992 31-12-2019 21:13:17 7 C 70 %
993 31-12-2019 21:23:18 7 C 70 %
994 31-12-2019 21:33:17 7 C 70 %
995 31-12-2019 21:43:17 7 C 71 %
996 31-12-2019 21:53:17 7 C 71 %
997 31-12-2019 22:03:17 7 C 71 %
998 31-12-2019 22:13:17 7 C 71 %
999 31-12-2019 22:23:18 7 C 71 %
1000 31-12-2019 22:33:17 7 C 71 %
Sensor: Nr:Datum:Temp:Feuchte:
G-T/H 1001 31-12-2019 22:43:17 7 C 71 %
1002 31-12-2019 22:53:17 6.9 C 72 %
1003 31-12-2019 23:03:17 6.9 C 72 %
1004 31-12-2019 23:13:17 6.9 C 72 %
1005 31-12-2019 23:23:18 6.9 C 72 %
1006 31-12-2019 23:33:17 6.9 C 72 %
1007 31-12-2019 23:43:17 6.9 C 72 %
1008 31-12-2019 23:53:18 6.9 C 72 %

Legende:
   Min
   Max


Maximal/Minimal-Werte vom 25.12.2019 - 31.12.2019

Sensor Min Max Avg
Temp
(Aussen-T/F)
-5 °C
29-12-2019  07:23:17
8.4 °C
25-12-2019  00:02:17
1.41 °C
Feuchte
(Aussen-T/F)
25 %
25-12-2019  10:42:17
46 %
31-12-2019  18:43:17
38.77 %
Temp
(G-T/H)
5.1 °C
28-12-2019  10:13:17
10.3 °C
25-12-2019  10:52:17
8.51 °C
Feuchte
(G-T/H)
61 %
28-12-2019  09:53:17
76 %
25-12-2019  00:02:17
72.26 %

Die Daten stammen von einer Davis Vantage Pro 2 Wetter-Station und werden unter Linux mit der Software wview2wettercgi und aufbereitet. Alle Angaben erfolgen ohne Gewähr für ihre Vollständigkeit oder Richtigkeit.
Kontakt: Rainer Krienke krienke@uni-koblenz.de . Meine Webseiten an der Uni Koblenz oder privat.
Version: $Revision: 0.78 $